GEFSMW_con_cape1000_084.txt.gz
Probability
13 16 13 13 13 6 6 13 10 16 6 3 0 0 0 0 0 0 0 0 0 0 0 0 0 0 0 0 0 0 0 0 0 0 0 0 0 0 0 3 3 3 6
16 13 3 13 10 6 3 3 13 6 6 3 0 0 0 0 0 0 0 0 0 0 0 0 0 0 0 0 0 0 0 0 0 0 0 0 0 0 0 0 0 0 0
10 16 6 6 10 6 3 6 6 6 0 0 0 0 0 0 0 0 0 0 0 0 0 0 0 0 0 0 0 0 0 0 0 0 0 0 0 0 0 0 0 0 0
10 6 6 6 6 6 6 6 3 3 0 0 0 0 0 0 0 0 0 0 0 0 0 0 0 0 0 0 0 0 0 0 0 0 0 0 0 0 0 0 0 0 0
6 10 6 6 6 6 6 6 3 0 0 0 0 0 0 0 0 0 0 0 0 0 0 0 0 0 0 0 0 0 0 0 0 0 0 0 0 0 0 0 0 0 0
6 6 10 10 6 6 6 6 3 0 0 0 0 0 0 0 0 0 0 0 0 0 0 0 0 0 0 0 0 0 0 0 0 0 0 0 0 0 0 0 0 0 0
6 6 10 6 6 3 3 6 6 0 0 0 0 0 0 0 0 0 0 0 0 0 0 0 0 0 0 0 0 0 0 0 0 0 0 0 0 0 0 0 0 0 0
10 6 10 6 6 6 3 6 6 0 0 0 0 0 0 0 0 0 0 0 0 0 0 0 0 0 0 0 0 0 0 0 0 0 0 0 0 0 0 0 0 0 0
6 6 3 3 3 6 6 6 3 3 0 0 0 0 0 0 0 0 0 0 0 0 0 0 0 0 0 0 0 0 0 0 0 0 0 0 0 0 0 0 0 0 0
3 3 6 6 3 3 3 3 3 3 0 0 0 0 0 0 0 0 0 0 0 0 0 0 0 0 0 0 0 0 0 0 0 0 0 0 0 0 0 0 0 0 0
0 3 3 0 3 3 3 3 3 3 3 0 0 0 0 0 0 0 0 0 0 0 0 0 0 0 0 0 0 0 0 0 0 0 0 0 0 0 0 0 0 0 0
0 0 0 0 0 3 3 6 3 3 3 0 0 0 0 0 0 0 0 0 0 0 0 0 0 0 0 0 0 0 0 0 0 0 0 0 0 0 0 0 0 0 0
0 0 0 0 0 0 3 10 10 10 3 0 0 0 0 0 0 0 0 0 0 0 0 0 0 0 0 0 0 0 0 0 0 0 0 0 0 0 0 0 0 0 0
0 0 0 0 0 3 10 6 10 10 6 0 0 0 0 0 0 0 0 0 0 0 0 0 0 0 0 0 0 0 0 0 0 0 0 0 0 0 0 0 0 0 0
0 0 0 3 0 0 0 0 3 3 3 3 0 0 0 0 0 0 0 0 0 0 0 0 0 0 0 0 0 0 0 0 0 0 0 0 0 0 0 0 0 0 0
0 0 0 3 3 3 0 0 0 3 3 3 0 0 0 0 0 0 0 0 0 0 0 0 0 0 0 0 0 0 0 0 0 0 0 0 0 0 0 0 0 0 0
0 0 0 0 0 0 0 0 0 0 3 0 0 0 0 0 0 0 0 0 0 0 0 0 0 0 0 0 0 0 0 0 0 0 0 0 0 0 0 0 0 0 0
0 0 0 0 0 0 0 0 0 0 0 0 0 0 0 0 0 0 0 0 0 0 0 0 0 0 0 0 0 0 0 0 0 0 0 0 0 0 0 0 0 0 0
0 0 0 0 0 0 0 0 0 0 0 0 0 0 0 0 0 0 0 0 0 0 0 0 0 0 0 0 0 0 0 0 0 0 0 0 0 0 0 0 0 0 0
0 0 0 0 0 0 0 0 0 0 0 0 0 0 0 0 0 0 0 0 0 0 0 0 0 0 0 0 0 0 0 0 0 0 0 0 0 0 0 0 0 0 0
0 0 0 0 0 0 0 0 0 0 0 0 0 0 0 0 0 0 0 0 0 0 0 0 0 0 0 0 0 0 0 0 0 0 0 0 0 0 0 0 0 0 0
0 0 0 0 0 0 0 0 0 0 0 0 0 0 0 0 0 0 0 0 0 0 0 0 0 0 0 0 0 0 0 0 0 0 0 0 0 0 0 0 0 0 0
0 0 0 0 0 0 0 0 0 0 0 0 0 0 0 0 0 0 0 0 0 0 0 0 0 0 0 0 0 0 0 0 0 0 0 0 0 0 0 0 0 0 0
0 0 0 0 0 0 0 0 0 0 0 0 0 0 0 0 0 0 0 0 0 0 0 0 0 0 0 0 0 0 0 0 0 0 0 0 0 0 0 0 0 0 0
0 0 0 0 0 0 0 0 0 0 0 0 0 0 0 0 0 0 0 0 0 0 0 0 0 0 0 0 0 0 0 0 0 0 0 0 0 0 0 0 0 0 0
0 0 0 0 0 0 0 0 0 0 0 0 0 0 0 0 0 0 0 0 0 0 0 0 0 0 0 0 0 0 0 0 0 0 0 0 0 0 0 0 0 0 0

GEFSMW_con_cape1000_090.txt.gz
Probability
52 48 45 42 58 55 65 74 71 77 84 68 52 48 42 32 19 23 16 13 13 13 16 6 10 6 3 3 3 6 10 10 16 13 13 19 19 23 35 35 32 35 29
42 42 39 35 39 45 42 48 68 68 71 65 52 48 42 26 19 13 19 10 10 10 10 10 3 6 6 6 3 10 3 6 10 13 19 23 19 23 0 26 23 23 35
35 39 35 32 35 35 35 26 55 61 68 61 48 35 35 19 16 16 16 10 10 10 6 3 3 3 3 3 3 13 6 0 3 6 6 13 19 23 16 16 19 19 29
29 32 35 32 29 29 19 35 52 58 52 52 39 29 23 19 13 16 16 6 3 3 3 0 3 6 0 3 3 0 3 10 6 6 10 6 13 13 16 6 10 16 16
19 23 29 35 29 23 26 32 45 55 48 35 45 39 26 26 13 13 13 10 3 3 0 0 0 0 0 0 3 3 0 6 10 0 3 0 0 0 3 0 3 6 6
19 26 26 29 32 23 26 29 32 39 42 32 35 39 35 32 16 16 13 13 13 6 0 0 6 6 3 6 10 6 3 0 6 6 3 0 0 0 0 0 0 3 6
35 26 29 29 29 19 19 26 39 32 39 29 39 39 42 35 32 19 23 23 10 10 19 0 10 6 6 6 6 10 6 3 3 3 0 0 0 0 0 0 3 3 3
32 35 29 29 23 23 19 26 29 29 35 39 45 45 42 35 23 29 19 19 10 10 13 23 19 26 13 3 13 3 3 10 6 0 3 0 0 0 0 0 3 3 3
32 35 35 32 26 26 23 26 39 42 48 45 45 48 39 35 32 35 32 19 32 16 26 23 26 26 23 23 29 19 19 10 10 6 6 3 0 0 0 0 0 0 0
35 29 32 35 29 23 29 29 42 52 52 48 45 32 35 39 45 35 32 23 19 19 29 19 19 19 19 29 32 29 23 19 16 16 10 10 3 3 0 0 0 0 0
32 32 39 39 32 23 35 48 52 55 48 48 42 35 32 32 42 45 45 35 29 35 32 29 32 32 29 26 35 23 19 23 23 19 10 13 19 13 10 0 3 0 3
39 32 35 42 35 35 42 48 48 45 52 55 52 52 52 45 48 39 42 48 42 45 39 45 48 39 29 32 42 35 23 26 26 19 23 16 16 19 23 16 13 13 16
45 42 52 55 48 52 52 55 52 45 48 52 61 58 55 48 61 42 39 52 52 52 42 39 48 42 32 35 35 35 26 23 26 23 23 23 23 23 26 26 16 19 6
61 65 65 71 61 61 61 61 58 52 55 58 58 61 61 55 52 52 45 42 45 45 42 35 26 19 13 16 16 19 26 29 19 16 13 10 16 16 19 19 29 26 23
74 71 71 77 81 71 65 58 58 65 65 55 61 58 55 52 48 45 45 42 32 26 35 26 26 19 10 6 19 32 16 23 23 19 16 10 0 0 0 0 13 16 26
71 71 71 81 77 71 77 74 61 61 65 58 52 52 45 45 39 45 42 35 29 26 26 26 19 19 0 0 0 0 13 19 16 16 16 10 0 0 0 0 0 0 0
52 65 68 71 71 68 74 65 68 68 58 52 42 39 29 29 19 13 16 19 23 23 16 10 10 10 6 0 0 0 0 6 10 10 16 0 0 0 0 0 0 0 0
52 55 55 61 61 65 58 58 61 48 45 42 29 23 19 13 13 6 6 3 10 10 10 6 6 6 3 0 0 0 0 0 3 3 3 3 3 0 0 0 0 0 0
35 39 35 42 45 45 48 42 39 32 23 19 13 10 6 3 3 0 3 3 3 3 3 3 3 3 3 0 0 0 0 0 3 3 0 0 0 0 0 0 0 0 0
19 19 19 23 23 19 23 19 10 6 0 0 0 0 0 0 0 0 3 3 3 3 3 3 0 0 0 0 0 0 0 0 0 0 0 0 0 0 0 0 0 0 0
16 13 13 13 13 10 10 6 0 0 0 0 0 0 0 0 3 3 3 3 3 3 0 0 0 0 0 0 0 0 0 0 0 0 0 0 0 0 0 0 0 0 0
10 10 10 10 6 6 6 0 0 0 0 0 3 3 3 3 3 3 3 3 0 0 0 0 0 0 0 0 0 0 0 0 0 0 0 0 0 0 0 0 0 0 0
3 3 3 3 3 3 0 0 0 0 0 0 0 0 0 0 0 0 0 0 0 0 0 0 0 0 0 0 0 0 0 0 0 0 0 0 0 0 0 0 0 0 0
0 0 0 0 0 0 0 0 0 0 0 0 0 0 0 0 0 0 0 0 0 0 0 0 0 0 0 0 0 0 0 0 0 0 0 0 0 0 0 0 0 0 0
0 0 0 0 0 0 0 0 0 0 0 0 0 0 0 0 0 0 0 0 0 0 0 0 0 0 0 0 0 0 0 0 0 0 0 0 0 0 0 0 0 0 0
0 0 0 0 0 0 0 0 0 0 0 0 0 0 0 0 0 0 0 0 0 0 0 0 0 0 0 0 0 0 0 0 0 0 0 0 0 0 0 0 0 0 0

GEFSMW_con_cape1000_096.txt.gz
Probability
65 77 68 61 65 68 68 65 65 71 77 84 84 87 81 84 77 58 58 52 48 39 29 42 45 35 58 52 39 45 42 55 58 58 35 61 48 58 68 58 55 58 55
65 71 71 55 61 65 68 65 65 74 71 81 84 90 87 77 61 48 42 39 32 26 13 35 39 29 55 23 29 29 48 42 35 52 42 29 42 58 26 58 48 45 58
68 71 65 61 65 71 65 58 68 68 77 84 84 81 81 74 55 39 42 35 23 19 19 16 26 35 42 42 26 32 19 39 32 32 42 26 23 26 42 35 42 55 58
48 61 52 52 58 58 52 61 58 65 71 77 71 65 58 61 55 52 45 26 23 16 13 16 23 29 32 58 32 29 35 29 39 29 23 26 26 29 23 26 32 45 52
42 48 45 48 45 48 48 55 58 58 68 68 74 68 58 61 65 55 45 39 19 10 13 16 13 19 29 32 19 29 32 48 39 42 45 26 29 26 19 13 19 29 32
32 45 39 45 48 48 48 48 55 55 65 71 68 68 68 68 65 61 45 45 42 26 16 23 23 23 29 29 19 23 23 32 45 48 48 35 23 13 16 13 23 29 32
35 45 39 42 45 48 48 45 55 58 58 61 55 58 68 58 58 55 55 48 39 45 48 19 35 35 42 29 29 35 32 23 23 32 39 48 32 16 13 6 6 16 35
35 39 35 39 42 35 48 45 48 52 61 55 55 68 61 58 48 55 55 61 52 42 45 45 42 32 26 16 42 39 29 19 16 10 32 45 26 13 19 6 13 10 16
42 42 35 39 35 39 45 39 45 58 55 55 58 58 52 55 55 58 58 55 68 39 39 52 45 39 39 39 32 42 35 42 32 26 23 32 26 19 19 16 19 16 6
42 48 42 48 39 45 52 42 61 61 55 58 55 42 48 52 55 58 58 61 61 42 42 45 48 52 48 45 45 45 45 42 45 52 42 42 35 35 32 26 26 19 16
45 55 52 48 45 39 48 48 55 58 55 48 45 45 42 55 48 52 55 61 48 48 61 61 58 52 65 58 65 52 39 29 39 35 29 32 29 29 23 29 29 19 16
48 52 58 58 52 42 48 48 52 55 55 52 52 52 61 58 52 52 55 58 61 65 65 65 65 58 52 58 55 45 45 45 29 29 29 26 26 42 39 35 19 29 26
77 68 65 58 68 61 55 45 45 48 52 55 61 65 58 58 58 55 58 68 65 65 61 58 58 55 52 48 48 55 45 35 32 29 29 23 19 35 39 42 26 26 3
94 87 87 84 71 74 68 65 55 48 52 58 61 61 55 55 58 65 68 61 61 61 58 52 45 42 35 29 39 39 35 29 19 19 16 13 13 13 19 10 16 13 19
87 87 84 90 87 87 84 77 65 58 65 61 61 65 65 61 65 61 58 55 45 32 48 39 35 26 6 6 16 16 13 19 23 16 13 10 6 6 0 0 3 0 3
84 87 87 90 94 87 77 77 74 74 81 74 68 68 71 58 48 48 52 48 45 35 32 26 13 6 0 0 0 3 13 13 13 13 10 10 10 0 0 0 0 0 0
84 87 81 84 87 84 90 81 81 77 71 68 68 68 52 45 45 35 35 32 29 26 13 13 6 0 0 0 0 0 0 6 10 10 10 0 0 0 0 0 0 0 0
87 84 81 81 81 90 84 84 77 74 61 61 61 58 48 42 35 29 19 16 13 6 10 6 3 3 0 0 0 0 0 0 3 3 3 3 0 0 0 0 0 0 0
71 74 71 74 74 68 74 65 65 61 61 52 48 42 35 29 13 10 6 6 3 0 3 3 0 0 0 0 0 0 0 3 3 0 0 0 0 0 0 0 0 0 0
52 55 55 58 58 58 58 58 52 48 39 35 29 26 19 6 0 0 0 0 0 0 0 0 0 0 0 0 0 0 0 0 0 0 0 0 0 0 0 0 0 0 0
39 35 39 32 39 45 39 39 35 26 23 13 3 3 0 0 0 0 0 0 0 0 0 0 0 0 0 0 0 0 0 0 0 0 0 0 0 0 0 0 0 0 0
23 23 26 32 29 32 26 23 16 6 3 3 0 0 0 0 0 0 0 0 0 0 0 0 0 0 0 0 0 0 0 0 0 0 0 0 0 0 0 0 0 0 0
16 13 23 26 26 26 16 6 6 6 3 0 0 0 0 0 0 0 0 0 0 0 0 0 0 0 0 0 0 0 0 0 0 0 0 0 0 0 0 0 0 0 0
10 16 13 10 6 6 6 6 6 3 0 0 0 0 0 0 0 0 0 0 0 0 0 0 0 0 0 0 0 0 0 0 0 0 0 0 0 0 0 0 0 0 0
6 3 3 3 3 3 3 0 0 0 0 0 0 0 0 0 0 0 0 0 0 0 0 0 0 0 0 0 0 0 0 0 0 0 0 0 0 0 0 0 0 0 0
3 3 3 0 0 0 0 0 0 0 0 0 0 0 0 0 0 0 0 0 0 0 0 0 0 0 0 0 0 0 0 0 0 0 0 0 0 0 0 0 0 0 0

GEFSMW_con_cape1000_102.txt.gz
Probability
58 52 45 45 32 39 39 39 42 29 26 26 23 23 19 16 16 19 23 23 16 10 3 3 0 0 0 0 0 0 0 0 0 0 0 0 0 0 0 0 3 0 3
55 48 39 39 39 35 32 32 26 26 26 19 10 13 13 6 10 6 16 13 6 3 3 0 0 0 0 0 0 0 0 0 0 0 0 0 0 0 0 0 0 3 3
55 45 39 39 39 35 32 32 26 26 16 16 10 6 6 6 3 3 6 6 6 6 3 0 0 0 0 0 0 0 0 0 0 0 0 0 0 0 0 0 0 0 0
45 42 42 39 35 35 29 19 19 13 10 10 6 6 6 6 3 3 0 0 0 3 0 0 0 0 0 0 0 0 0 0 0 0 0 0 0 0 0 0 0 0 0
39 32 35 39 35 32 26 19 13 10 10 10 6 6 6 6 3 0 0 0 0 0 3 0 0 0 0 0 0 0 0 0 0 0 0 0 0 0 0 0 0 0 0
32 32 32 29 32 29 23 16 16 16 10 10 6 6 3 0 0 0 0 0 0 0 0 0 0 0 0 0 0 0 0 0 0 0 0 0 0 0 0 0 0 0 0
23 29 26 23 23 29 26 19 16 16 19 13 6 3 0 0 0 0 0 0 0 0 0 0 0 0 0 0 0 0 0 0 0 0 0 0 0 0 0 0 0 0 0
16 23 19 19 19 26 29 23 19 19 13 13 6 0 0 0 0 0 0 0 0 0 0 0 0 0 0 0 0 0 0 0 0 0 0 0 0 0 0 0 0 0 0
16 19 19 16 13 16 23 23 13 10 13 10 6 3 0 0 0 0 0 0 0 0 0 0 0 0 0 0 0 0 0 0 0 0 0 0 0 0 0 0 0 0 0
16 16 16 13 13 19 26 23 13 6 6 10 10 6 3 0 0 0 0 3 3 3 0 0 0 0 0 0 0 0 0 0 0 0 0 0 0 0 0 0 0 0 0
19 19 16 16 13 16 16 23 13 10 6 6 10 10 6 3 0 0 0 3 3 3 0 0 0 0 0 0 0 0 0 0 0 0 0 0 0 0 0 0 0 0 0
13 19 16 16 13 10 10 13 13 13 10 6 6 10 10 10 3 3 3 3 3 3 0 0 0 0 0 0 0 0 0 0 0 0 0 0 0 0 0 0 0 0 0
10 10 13 16 19 13 13 16 19 19 16 13 13 6 10 10 13 3 3 3 3 3 0 0 0 0 0 0 0 0 0 0 0 0 0 0 0 0 0 0 0 0 0
13 23 13 16 19 16 16 16 16 19 13 13 16 16 13 13 13 10 3 3 3 3 0 0 0 0 0 0 0 0 0 0 0 0 0 0 0 0 0 0 0 0 0
13 23 13 13 13 10 13 13 16 16 13 16 16 16 16 16 13 6 6 6 6 3 0 0 0 0 0 0 0 0 0 0 0 0 0 0 0 0 0 0 0 0 0
19 19 16 13 19 13 10 10 13 16 16 16 16 16 19 19 16 10 6 6 6 6 0 0 0 0 0 0 0 0 0 0 0 0 0 0 0 0 0 0 0 0 0
19 26 23 16 13 16 16 10 10 13 13 13 16 16 13 13 13 6 6 3 3 3 0 0 0 0 0 0 0 0 0 0 0 0 0 0 0 0 0 0 0 0 0
16 10 10 10 10 6 10 10 3 6 10 10 10 13 13 10 10 3 0 3 3 3 0 0 0 0 0 0 0 0 0 0 0 0 0 0 0 0 0 0 0 0 0
6 3 6 3 6 6 3 6 3 3 3 6 10 10 10 6 6 3 0 0 3 3 0 0 0 0 0 0 0 0 0 0 0 0 0 0 0 0 0 0 0 0 0
3 10 3 0 3 3 3 6 6 6 6 6 6 6 6 3 3 0 0 0 0 3 0 0 0 0 0 0 0 0 0 0 0 0 0 0 0 0 0 0 0 0 0
3 3 3 0 0 3 0 6 6 6 3 3 3 3 3 0 0 0 0 0 0 0 0 0 0 0 0 0 0 0 0 0 0 0 0 0 0 0 0 0 0 0 0
0 0 3 0 0 0 3 6 6 3 3 3 3 0 0 0 0 0 0 0 0 0 0 0 0 0 0 0 0 0 0 0 0 0 0 0 0 0 0 0 0 0 0
0 0 3 0 0 0 0 3 3 3 0 0 0 0 0 0 0 0 0 0 0 0 0 0 0 0 0 0 0 0 0 0 0 0 0 0 0 0 0 0 0 0 0
0 0 0 0 0 0 3 0 0 3 3 0 0 0 0 0 0 0 0 0 0 0 0 0 0 0 0 0 0 0 0 0 0 0 0 0 0 0 0 0 0 0 0
0 0 0 0 0 0 0 0 0 0 0 0 0 0 0 0 0 0 0 0 0 0 0 0 0 0 0 0 0 0 0 0 0 0 0 0 0 0 0 0 0 0 0
0 0 0 0 0 0 0 0 0 0 0 0 0 0 0 0 0 0 0 0 0 0 0 0 0 0 0 0 0 0 0 0 0 0 0 0 0 0 0 0 0 0 0

GEFSMW_con_cape1000_108.txt.gz
Probability
23 19 19 16 16 13 19 19 16 16 13 10 10 10 10 3 3 10 10 13 16 13 0 3 0 0 0 0 0 0 0 0 0 0 0 0 0 0 0 0 3 3 3
42 26 23 13 16 19 16 13 10 6 6 10 6 6 6 3 3 6 6 13 10 6 0 0 0 0 0 0 0 0 0 0 0 0 0 0 0 0 0 0 0 0 6
45 29 26 19 19 13 16 10 13 10 6 3 6 6 3 3 3 3 6 6 3 0 0 0 0 0 0 0 0 0 0 0 0 0 0 0 0 0 0 0 0 0 3
35 32 23 23 23 13 16 10 10 10 3 3 3 6 6 6 3 3 3 3 0 0 0 0 0 0 0 0 0 0 0 0 0 0 0 0 0 0 0 0 0 0 0
19 29 26 26 26 13 16 10 6 10 3 3 6 6 6 6 3 3 3 0 0 0 0 0 0 0 0 0 0 0 0 0 0 0 0 0 0 0 0 0 0 0 0
19 16 23 23 23 16 16 13 10 10 3 3 3 3 3 3 3 3 3 0 0 0 0 0 0 0 0 0 0 0 0 0 0 0 0 0 0 0 0 0 0 0 0
23 23 23 19 19 13 10 10 6 3 3 3 3 0 3 3 3 3 3 0 0 0 0 0 0 0 0 0 0 0 0 0 0 0 0 0 0 0 0 0 0 0 0
26 26 26 19 16 13 13 13 10 6 3 3 3 0 3 0 0 3 3 0 0 0 0 0 0 0 0 0 0 0 0 0 0 0 0 0 0 0 0 0 0 0 0
13 13 16 16 10 10 10 10 10 6 6 6 3 0 0 0 0 0 0 0 0 0 0 0 0 0 0 0 0 0 0 0 0 0 0 0 0 0 0 0 0 0 0
13 13 10 13 13 10 10 10 6 10 6 6 6 6 0 0 0 0 0 0 0 0 0 0 0 0 0 0 0 0 0 0 0 0 0 0 0 0 0 0 0 0 0
10 10 10 13 13 6 6 6 6 10 3 6 6 6 6 0 0 0 0 0 0 0 0 0 0 0 0 0 0 0 0 0 0 0 0 0 0 0 0 0 0 0 0
10 13 10 3 3 3 3 3 6 3 6 3 3 3 6 3 0 0 0 0 0 0 0 0 0 0 0 0 0 0 0 0 0 0 0 0 0 0 0 0 0 0 0
6 6 6 3 3 3 3 3 6 10 10 6 6 3 3 3 3 0 0 0 0 0 0 0 0 0 0 0 0 0 0 0 0 0 0 0 0 0 0 0 0 0 0
3 6 6 3 3 3 3 6 10 6 10 10 6 6 3 3 3 3 0 0 0 0 0 0 0 0 0 0 0 0 0 0 0 0 0 0 0 0 0 0 0 0 0
6 6 6 0 3 3 3 6 6 10 10 10 6 6 6 6 3 3 0 0 0 0 0 0 0 3 0 0 0 0 0 0 0 0 0 0 0 0 0 0 0 0 0
6 6 6 3 0 0 3 6 6 6 6 6 10 6 6 6 6 3 0 0 0 0 0 0 0 3 0 0 0 0 0 0 0 0 0 0 0 0 0 0 0 0 0
10 6 6 6 0 0 0 6 10 6 6 6 10 10 10 6 6 6 0 0 0 0 0 3 3 3 3 0 0 0 0 0 0 0 0 0 0 0 0 0 0 0 0
0 3 3 3 0 0 0 3 6 10 6 6 10 6 6 6 6 6 0 0 0 3 3 3 3 3 3 0 0 0 0 0 0 0 0 0 0 0 0 0 0 0 0
0 0 0 0 0 0 0 0 6 6 6 3 3 3 6 6 6 3 0 0 0 0 0 3 3 3 3 0 0 0 0 0 0 0 0 0 0 0 0 0 0 0 0
0 0 0 0 0 0 0 0 3 6 3 3 3 3 3 3 3 3 0 0 0 0 0 0 0 3 3 0 0 0 0 0 0 0 0 0 0 0 0 0 0 0 0
0 0 0 0 0 0 0 0 0 0 3 3 3 0 3 3 3 0 0 0 0 0 0 0 0 0 0 0 0 0 0 0 0 0 0 0 0 0 0 0 0 0 0
0 0 0 0 0 0 0 0 0 0 0 0 3 3 3 3 0 0 0 0 0 0 0 0 0 0 0 0 0 0 0 0 0 0 0 0 0 0 0 0 0 0 0
0 0 0 0 0 0 0 0 0 0 0 0 0 3 0 0 0 0 0 0 0 0 0 0 0 0 0 0 0 0 0 0 0 0 0 0 0 0 0 0 0 0 0
0 0 0 0 0 0 0 0 0 0 0 0 0 0 0 0 0 0 0 0 0 0 0 0 0 0 0 0 0 0 0 0 0 0 0 0 0 0 0 0 0 0 0
0 0 0 0 0 0 0 0 0 0 0 0 0 0 0 0 0 0 0 0 0 0 0 0 0 0 0 0 0 0 0 0 0 0 0 0 0 0 0 0 0 0 0
0 0 0 0 0 0 0 0 0 0 0 0 0 0 0 0 0 0 0 0 0 0 0 0 0 0 0 0 0 0 0 0 0 0 0 0 0 0 0 0 0 0 0

GEFSMW_con_cape1000_114.txt.gz
Probability
81 74 74 77 68 71 65 65 65 71 71 74 71 74 68 77 74 81 71 74 68 68 71 52 68 55 45 39 26 35 39 42 35 19 29 26 13 16 48 19 23 23 29
77 77 84 71 58 65 65 65 68 65 65 61 68 71 68 61 68 65 68 71 65 61 58 65 52 42 52 48 42 42 35 35 35 35 35 32 23 26 3 26 35 19 32
74 71 74 61 58 61 68 61 65 61 52 55 61 68 68 61 58 61 61 68 58 55 55 55 45 42 29 39 48 48 42 35 35 26 19 26 13 13 10 6 16 39 39
74 71 71 65 55 61 61 68 58 58 55 45 42 42 45 48 48 55 52 55 55 52 55 52 58 45 29 48 32 23 32 42 39 29 29 16 6 6 19 19 16 19 26
74 71 65 58 52 45 48 52 58 48 48 45 45 45 35 39 42 48 48 52 45 48 42 55 52 39 32 32 32 45 35 26 29 13 16 13 10 3 6 13 13 19 16
68 68 65 55 48 45 52 48 52 52 48 45 39 42 39 35 35 42 42 52 48 42 45 42 42 39 32 35 39 42 39 32 32 23 16 6 6 6 6 3 19 13 13
61 61 58 61 52 48 42 52 48 48 45 39 35 42 42 55 45 42 42 42 35 29 42 29 48 35 35 42 35 42 32 29 35 29 19 10 6 3 3 6 6 10 13
68 61 61 61 58 55 55 58 58 52 39 42 48 52 52 39 39 45 42 42 35 26 32 32 35 29 19 19 32 16 19 19 19 10 26 16 3 3 3 6 10 6 13
74 71 68 61 61 58 52 52 52 52 48 48 45 48 48 48 42 42 39 39 42 29 32 26 29 19 23 19 29 13 23 26 23 10 13 10 6 3 3 6 6 13 10
68 68 74 58 58 55 48 52 48 48 45 48 45 39 48 55 48 32 32 32 29 26 23 23 16 19 23 23 19 23 26 23 26 23 13 10 6 6 0 0 6 0 6
71 71 68 65 52 52 48 48 48 48 48 48 45 39 48 45 39 35 32 35 26 32 19 29 26 13 19 16 26 13 13 13 19 16 13 13 13 3 3 0 0 0 0
61 71 65 61 58 52 48 45 48 48 52 48 48 52 45 39 35 29 23 35 42 32 13 16 23 19 13 10 10 6 6 6 13 10 16 6 6 13 13 6 6 6 13
81 84 74 71 58 58 52 45 48 42 45 52 48 48 48 39 39 32 35 39 35 26 23 19 26 23 19 29 19 6 3 10 3 3 6 3 3 6 3 0 6 6 0
84 84 81 77 61 58 55 48 45 42 45 48 48 45 39 39 32 29 39 32 32 29 19 19 19 16 16 23 19 13 23 10 6 3 3 0 0 0 0 0 0 0 0
87 84 81 77 68 61 55 52 39 39 35 42 45 42 39 35 26 26 23 23 19 19 29 26 23 19 19 19 23 19 10 10 6 6 3 0 0 0 0 0 0 0 0
77 74 74 65 61 55 52 52 42 39 32 32 32 39 35 19 19 23 23 19 19 19 19 19 19 16 6 0 0 13 10 13 10 6 3 0 0 0 0 0 0 0 0
61 65 61 61 55 55 52 48 52 35 42 35 29 29 26 26 23 19 19 19 19 19 19 19 19 19 6 0 0 0 13 6 6 6 3 3 0 0 0 0 0 0 0
48 52 55 52 55 48 45 48 42 45 39 32 32 26 29 23 19 19 19 19 19 19 19 19 19 19 6 0 0 0 0 3 6 6 3 3 0 0 0 0 0 0 0
42 42 35 39 45 45 42 39 42 42 29 26 29 23 23 23 19 19 19 19 19 19 16 16 13 13 6 3 0 0 3 3 6 3 3 3 0 0 0 0 0 0 0
39 42 42 39 42 42 42 35 29 26 29 26 23 19 16 23 16 16 16 16 16 13 10 10 13 13 6 3 0 0 3 6 3 3 3 0 0 0 0 0 0 0 0
32 39 35 35 42 45 42 32 29 26 26 26 26 19 16 16 13 13 13 10 10 10 10 10 10 3 3 0 0 0 0 6 3 3 3 0 0 0 0 0 0 0 0
23 32 35 35 35 39 35 35 35 32 29 26 23 19 13 6 10 10 10 10 10 6 6 3 3 0 0 0 0 0 0 0 3 0 0 0 0 0 0 0 0 0 0
23 23 29 35 29 29 35 29 29 29 29 16 13 10 6 6 6 10 10 6 6 6 3 3 0 0 0 0 0 0 0 0 0 0 0 0 0 0 0 0 0 0 0
16 16 19 16 13 16 19 19 16 23 19 10 6 10 6 6 6 6 6 3 3 3 3 0 0 0 0 0 0 0 0 0 0 0 0 0 0 0 0 0 0 0 0
10 13 16 19 10 10 16 16 13 13 10 3 3 3 3 6 6 0 0 0 0 0 0 0 0 0 0 0 0 0 0 0 0 0 0 0 0 0 0 0 0 0 0
6 13 13 13 10 10 13 13 13 10 3 0 3 3 0 0 0 0 0 0 0 0 0 0 0 0 0 0 0 0 0 0 0 0 0 0 0 0 0 0 0 0 0

GEFSMW_con_cape1000_120.txt.gz
Probability
84 87 81 81 84 84 84 87 84 81 77 77 74 65 77 81 90 94 94 87 90 94 94 87 87 90 94 90 74 77 74 71 74 68 58 65 68 77 94 77 77 68 65
84 87 84 84 87 84 84 87 84 81 74 77 68 74 81 84 94 94 90 87 84 84 74 87 84 87 90 77 68 77 77 71 71 71 42 35 48 68 32 74 71 61 52
87 87 87 87 87 84 81 74 84 81 77 71 71 65 71 71 81 90 90 81 81 81 94 84 81 87 77 77 74 71 68 58 71 65 52 26 23 23 45 65 68 71 77
84 81 84 84 87 84 81 77 74 71 71 65 61 58 52 52 77 90 94 81 81 81 81 77 84 84 77 84 74 68 65 68 74 68 68 61 58 32 19 61 58 68 74
77 74 71 84 87 84 74 77 77 68 68 61 61 65 65 71 74 84 90 87 74 71 71 77 77 81 84 84 74 84 74 74 77 74 61 55 68 58 26 13 26 45 48
77 74 74 84 81 77 74 74 74 71 74 65 58 65 77 65 68 81 74 74 74 74 71 77 77 74 81 81 71 65 68 74 71 71 71 52 45 42 48 29 23 19 48
77 74 81 77 74 74 65 68 68 71 68 65 65 71 77 81 71 68 68 68 65 74 84 68 77 68 74 68 74 81 77 65 58 74 65 65 61 61 48 29 32 23 39
68 74 77 77 74 68 65 71 68 71 68 65 77 81 87 74 61 68 55 58 65 74 81 74 61 68 68 45 58 58 52 58 58 39 58 71 74 58 35 26 32 23 13
74 77 77 77 68 68 77 77 77 77 68 71 77 77 81 71 68 71 58 58 65 65 68 58 58 58 55 55 68 61 68 65 52 45 58 61 52 39 39 39 35 29 10
71 71 77 71 68 71 81 71 68 77 74 81 68 61 68 71 68 65 61 55 55 71 58 45 58 55 58 58 61 61 65 52 45 61 55 48 29 29 29 29 32 29 29
71 74 81 81 77 68 68 74 71 74 74 77 68 68 61 65 74 74 61 61 65 58 52 52 61 55 48 42 52 52 42 45 32 23 23 39 32 29 29 26 26 19 29
77 81 81 81 81 71 65 71 65 71 71 71 68 65 68 58 61 55 55 58 61 48 55 58 58 52 52 52 45 39 39 26 23 16 23 23 16 32 26 16 19 19 19
81 90 84 84 74 68 68 68 61 61 61 68 68 65 61 61 55 55 52 52 48 45 52 55 52 42 45 45 45 32 32 26 23 19 13 19 23 23 19 16 13 10 10
94 94 94 90 87 87 81 74 65 61 58 71 61 68 65 55 52 52 48 55 42 39 45 42 48 39 32 29 29 29 32 29 23 23 19 19 13 16 13 10 10 6 6
94 94 87 90 90 90 90 87 81 74 74 74 65 61 55 55 55 55 48 42 35 35 39 32 35 29 26 29 32 29 29 29 19 16 10 6 3 6 6 3 6 3 6
87 90 90 90 90 90 87 84 84 71 81 74 58 58 52 42 42 35 35 35 35 35 32 29 23 19 16 6 6 29 26 23 23 13 6 3 3 3 0 0 0 0 0
87 84 87 87 90 87 84 81 74 77 68 61 55 48 45 39 39 35 32 32 29 26 26 19 19 19 16 3 0 3 19 23 23 10 6 3 3 3 3 0 0 0 0
81 84 81 84 81 77 71 71 65 65 68 71 52 52 35 32 29 29 29 26 26 23 19 23 23 23 19 3 0 0 6 16 13 10 6 6 3 3 3 3 0 0 0
74 77 61 61 65 61 65 61 58 61 61 55 48 39 39 32 29 29 26 23 23 23 23 23 23 23 16 3 0 0 3 10 3 6 6 6 3 3 0 0 3 0 0
61 61 48 52 52 65 68 65 58 52 48 52 45 35 32 29 29 23 23 26 26 23 23 16 16 13 13 3 0 0 3 3 6 6 6 3 0 3 0 0 3 0 0
58 52 48 52 52 52 58 52 52 45 45 42 32 26 26 26 26 23 23 23 23 16 13 13 13 13 10 3 0 0 0 3 3 3 3 3 0 0 0 0 0 0 0
39 42 48 55 45 42 48 55 42 45 32 29 26 19 19 19 16 16 13 13 13 13 13 10 6 6 0 0 0 0 0 0 0 0 0 0 0 0 0 0 0 0 0
29 35 35 39 42 45 35 39 39 42 32 19 23 19 13 16 10 10 6 6 6 6 10 6 6 0 0 0 0 0 0 0 0 0 0 0 0 0 0 0 0 0 0
29 29 32 35 29 26 29 26 32 29 16 16 16 13 16 10 6 6 3 3 3 3 3 6 3 0 0 0 0 0 0 0 0 0 0 0 0 0 0 0 0 0 0
23 23 19 19 19 23 26 26 23 19 16 16 13 13 10 6 6 0 0 0 0 0 3 3 0 0 0 0 0 0 0 0 0 0 0 0 0 0 0 0 0 0 0
13 16 19 19 19 19 16 19 19 16 16 10 10 10 6 10 0 0 0 0 0 0 0 0 0 0 0 0 0 0 0 0 0 0 0 0 0 0 0 0 0 0 0

GEFSMW_con_cape1000_126.txt.gz
Probability
74 68 68 68 71 58 58 55 52 42 29 32 29 19 16 19 29 26 23 32 32 23 10 13 10 3 3 3 3 0 3 0 0 0 0 0 0 0 0 0 0 3 3
68 68 65 71 71 71 52 48 42 39 32 29 26 19 10 13 19 19 19 23 42 13 16 0 10 3 0 0 3 0 0 0 0 0 0 0 0 3 0 0 0 0 0
68 65 71 68 68 71 52 45 45 32 29 26 23 16 10 6 13 13 16 23 35 19 10 0 0 0 0 0 0 0 0 0 0 0 0 0 0 0 0 0 0 0 0
68 65 65 71 65 55 45 39 35 29 26 23 23 16 10 6 3 6 6 6 10 19 10 6 0 0 0 0 0 0 0 0 0 0 0 0 0 0 0 0 0 0 0
61 58 58 55 58 52 52 42 39 29 26 23 23 13 6 6 3 3 0 3 6 13 10 6 0 0 0 0 0 0 0 0 0 0 0 0 0 0 0 0 0 0 0
55 55 55 42 45 42 55 45 42 29 19 26 16 16 10 6 6 6 3 3 3 3 3 3 3 0 0 0 0 0 0 0 0 0 0 0 0 0 0 0 0 0 0
58 55 52 42 45 45 39 48 42 42 32 26 29 19 13 10 6 6 6 3 6 3 3 3 3 0 0 0 0 0 0 0 0 0 0 0 0 0 0 0 0 0 0
58 52 52 45 45 48 42 52 45 39 35 35 19 23 19 13 6 6 6 6 3 3 3 3 3 3 0 0 0 0 0 0 0 0 0 0 0 0 0 0 0 0 0
45 35 42 39 39 39 32 45 35 35 35 32 29 19 19 16 6 6 6 6 6 3 3 3 6 6 0 0 0 0 0 0 0 0 0 0 0 0 0 0 0 0 0
48 45 39 39 42 42 39 32 39 39 35 29 29 26 23 16 16 16 13 6 3 3 6 6 6 3 3 0 0 0 0 0 0 0 0 0 0 0 0 0 0 0 0
45 39 42 42 32 35 35 39 35 35 39 32 32 26 23 23 19 16 10 3 3 3 3 0 3 3 0 0 0 0 0 0 0 0 0 0 0 0 0 0 0 0 0
45 42 42 35 26 29 29 26 32 32 29 26 29 26 23 23 19 16 16 10 6 0 0 0 0 0 0 0 0 0 0 0 0 0 0 0 0 0 0 0 0 0 0
42 48 42 42 32 29 26 26 29 32 32 32 35 32 23 19 23 19 16 13 10 6 0 0 0 0 0 0 0 0 0 0 0 0 0 0 0 0 0 0 0 0 0
42 32 29 29 29 32 29 29 26 32 32 35 35 29 26 19 19 19 16 13 13 13 6 3 3 3 3 3 0 0 0 0 0 0 0 0 0 0 0 0 0 0 0
52 48 39 32 29 23 29 32 29 29 29 29 29 29 23 19 16 16 16 13 13 13 13 10 6 0 0 3 3 3 0 0 0 0 0 0 0 0 0 0 0 0 0
58 58 55 35 29 29 32 32 29 26 26 23 23 23 23 19 19 19 16 10 10 10 10 10 13 6 6 3 0 3 3 0 0 0 0 0 0 0 0 0 0 0 0
61 55 58 39 32 32 29 26 23 23 26 23 23 23 19 19 16 13 10 6 10 10 10 10 10 10 10 6 0 0 3 3 0 0 0 0 3 0 0 0 0 0 0
45 55 48 42 42 29 23 23 13 13 16 13 16 16 13 10 10 10 10 10 6 13 10 10 10 10 6 3 0 0 0 0 0 0 0 0 0 0 0 0 0 0 0
32 39 32 23 29 29 26 23 19 16 13 13 10 10 10 10 10 10 10 10 6 6 10 6 3 3 3 3 0 0 0 0 0 0 0 0 0 0 0 0 0 0 0
23 23 23 16 16 16 16 16 16 16 13 10 10 10 6 6 6 6 6 6 3 3 3 0 0 0 3 3 0 0 0 0 0 0 0 0 0 0 0 0 0 0 0
23 19 26 23 13 10 6 3 3 6 3 3 3 3 3 3 0 0 3 3 3 0 0 0 0 0 0 0 0 0 0 0 0 0 0 0 0 0 0 0 0 0 0
13 16 26 26 19 10 6 3 3 3 3 0 0 0 0 0 0 0 0 0 0 0 0 0 0 0 0 0 0 0 0 0 0 0 0 0 0 0 0 0 0 0 0
13 10 13 16 6 3 10 6 6 3 3 0 0 0 0 0 0 0 0 0 0 0 0 0 0 0 0 0 0 0 0 0 0 0 0 0 0 0 0 0 0 0 0
6 10 10 6 6 3 3 3 6 6 6 3 3 0 0 0 0 0 0 0 0 0 0 0 0 0 0 0 0 0 0 0 0 0 0 0 0 0 0 0 0 0 0
6 6 6 10 10 6 3 3 3 3 3 6 3 3 0 0 0 0 0 0 0 0 0 0 0 0 0 0 0 0 0 0 0 0 0 0 0 0 0 0 0 0 0
6 6 6 6 6 3 3 3 3 3 3 0 0 3 3 3 0 0 0 0 0 0 0 0 0 0 0 0 0 0 0 0 0 0 0 0 0 0 0 0 0 0 0

GEFSMW_con_cape1000_132.txt.gz
Probability
48 55 55 48 45 32 26 19 19 13 6 3 13 13 10 10 10 6 3 6 13 6 6 6 0 0 0 0 0 0 0 0 0 0 0 0 0 0 0 0 3 3 10
61 58 61 55 48 39 26 16 13 6 6 3 3 6 10 13 13 6 6 6 10 10 6 0 0 0 0 0 0 0 0 0 0 0 0 0 0 0 0 0 0 3 3
65 68 65 65 42 39 26 26 13 6 6 10 3 6 6 6 6 10 6 6 13 10 10 0 0 0 0 0 0 0 0 0 0 0 0 0 0 0 0 0 0 0 3
68 68 68 61 58 39 32 26 16 13 10 10 3 3 6 10 6 6 6 3 6 10 6 3 0 0 0 0 0 0 0 0 0 0 0 0 0 0 0 0 0 0 0
68 55 52 52 52 42 35 35 26 23 16 13 10 3 3 3 3 6 3 0 0 3 6 10 0 0 0 0 0 0 0 0 0 0 0 0 0 0 0 0 0 0 0
58 48 39 42 39 35 39 29 29 23 19 19 13 10 3 3 3 3 3 3 3 3 0 3 0 0 0 0 0 0 0 0 0 0 0 0 0 0 0 0 0 0 0
48 45 39 35 35 32 39 29 26 19 16 19 16 13 13 3 3 3 3 3 3 3 3 6 0 0 0 0 0 0 0 0 0 0 0 0 0 0 0 0 0 0 0
42 35 29 29 32 29 19 23 19 13 13 13 13 13 10 10 6 6 6 6 3 3 3 3 6 3 0 0 0 0 0 0 0 0 0 0 0 0 0 0 0 0 0
42 35 32 23 23 19 23 23 23 16 13 13 13 13 6 6 10 6 6 6 3 3 3 3 6 6 3 0 0 0 0 0 0 0 0 0 0 0 0 0 0 0 0
35 35 26 19 16 19 26 26 23 19 19 10 10 10 10 10 6 0 0 0 0 0 0 0 0 3 3 6 0 0 0 0 0 0 0 0 0 0 0 0 0 0 0
39 29 26 19 19 19 19 19 13 16 16 13 10 10 6 6 6 6 0 0 0 0 0 0 0 0 3 3 0 0 0 0 0 0 0 0 0 0 0 0 0 0 0
26 29 29 26 23 19 16 13 16 13 16 10 10 6 6 10 10 6 6 3 3 0 0 0 0 0 0 0 3 0 0 0 0 0 0 0 0 0 0 0 0 0 0
32 32 26 26 23 16 16 13 13 10 10 6 10 13 10 10 10 10 6 6 6 3 3 0 0 0 0 0 0 0 0 0 0 0 0 0 0 0 0 0 0 0 0
35 26 26 26 19 19 16 16 13 10 10 13 16 16 13 10 10 13 13 10 10 6 6 3 3 0 0 0 0 0 0 0 0 0 0 0 0 0 0 0 0 0 0
39 23 29 16 13 13 13 16 10 19 13 16 19 23 19 19 19 13 13 13 10 10 3 3 3 6 0 0 0 0 0 0 0 0 0 0 0 0 0 0 0 0 0
35 29 19 16 16 13 13 10 10 13 13 13 19 19 19 16 13 13 13 10 10 6 3 6 3 3 3 0 0 0 0 0 0 0 0 0 0 0 0 0 0 0 0
26 19 19 16 13 10 10 10 10 13 10 6 6 3 10 10 13 13 13 13 6 3 3 3 3 6 3 0 0 0 0 0 3 0 0 0 0 0 0 0 0 0 0
19 16 16 13 10 6 3 3 3 6 6 6 6 3 6 6 6 6 6 6 6 6 3 3 3 3 3 0 0 0 0 0 0 0 0 0 0 0 0 0 0 0 0
0 6 13 10 6 3 3 3 3 6 6 6 6 6 10 10 10 6 0 0 0 0 3 0 0 0 0 0 0 0 0 0 0 0 0 0 0 0 0 0 0 0 0
0 3 6 6 3 3 3 6 6 6 6 6 3 3 6 6 3 3 3 0 0 3 3 3 0 0 0 0 0 0 0 0 0 0 0 0 0 0 0 0 0 0 0
3 6 6 6 3 0 3 3 0 0 0 0 0 0 0 3 3 3 3 0 0 0 0 0 0 0 0 0 0 0 0 0 0 0 0 0 0 0 0 0 0 0 0
3 3 3 0 0 0 0 0 0 0 0 0 0 0 0 0 0 0 0 0 0 0 0 0 0 0 0 0 0 0 0 0 0 0 0 0 0 0 0 0 0 0 0
6 3 0 0 0 0 0 0 0 0 0 0 0 0 0 0 0 0 0 0 0 0 0 0 0 0 0 0 0 0 0 0 0 0 0 0 0 0 0 0 0 0 0
3 3 0 0 0 0 0 0 0 0 0 0 0 0 0 0 0 0 0 0 0 0 0 0 0 0 0 0 0 0 0 0 0 0 0 0 0 0 0 0 0 0 0
6 3 3 3 0 0 0 0 0 0 0 0 0 0 0 0 0 0 0 3 0 0 0 0 0 0 0 0 0 0 0 0 0 0 0 0 0 0 0 0 0 0 0
3 3 3 3 0 0 0 0 0 0 0 0 0 0 0 0 0 0 0 0 0 0 0 0 0 0 0 0 0 0 0 0 0 0 0 0 0 0 0 0 0 0 0

GEFSMW_con_cape1000_138.txt.gz
Probability
74 81 81 74 81 90 94 94 87 87 68 68 65 68 68 68 68 68 81 84 90 90 94 65 90 87 71 74 48 58 52 52 48 55 58 42 23 42 39 48 39 19 29
74 84 84 81 84 90 90 90 84 84 74 61 68 61 58 61 68 71 87 87 84 87 74 90 77 87 94 84 77 77 65 45 48 55 61 35 48 55 10 45 48 42 39
71 74 81 84 84 90 90 81 84 84 77 74 58 52 52 52 58 68 77 68 77 84 84 84 74 84 68 74 81 90 77 58 48 39 42 39 42 26 35 39 39 48 55
74 71 81 81 87 87 81 87 84 84 84 77 68 58 55 48 52 61 61 61 68 65 68 74 81 81 65 77 68 55 65 77 55 48 55 35 29 39 29 32 23 35 48
74 74 77 84 84 81 84 84 84 81 81 74 77 68 52 48 52 61 55 61 55 58 58 71 74 81 71 71 68 68 71 68 58 52 35 39 39 23 32 26 19 29 29
65 77 81 81 87 77 81 77 87 77 77 74 61 65 61 61 48 55 48 58 58 61 52 68 77 71 68 74 77 74 71 71 68 65 48 45 39 35 35 23 29 32 13
74 77 87 77 87 81 74 74 74 77 71 71 68 65 68 61 58 52 42 52 58 52 65 58 77 74 74 71 84 84 74 68 74 81 61 48 32 29 42 42 29 16 16
77 84 84 87 84 74 74 81 74 74 71 68 74 71 65 65 61 61 48 42 32 42 58 55 68 65 65 45 81 65 61 68 71 55 77 65 32 39 32 39 39 32 16
84 81 81 90 90 81 84 87 90 84 71 65 65 65 58 58 55 58 61 48 48 32 35 55 61 58 58 65 68 71 71 58 58 52 61 61 52 32 39 29 39 32 23
87 87 87 94 90 84 84 84 90 87 71 58 61 45 58 58 55 55 48 42 48 45 42 45 48 58 61 65 74 61 55 61 61 68 65 65 35 35 32 29 26 32 42
94 87 94 94 97 84 74 81 87 77 71 61 52 48 52 52 48 48 42 48 48 48 55 55 52 55 52 55 61 39 45 42 55 55 48 58 55 42 29 26 35 29 35
97 90 94 97 97 87 77 77 71 71 71 61 55 55 58 48 52 45 58 55 55 58 55 61 58 58 48 48 55 61 32 32 35 45 42 42 42 55 39 45 32 35 42
94 90 94 94 94 84 74 74 65 65 61 61 61 65 65 61 58 58 58 58 58 58 48 61 61 48 48 48 48 42 35 32 35 35 45 39 32 39 35 42 32 26 13
97 97 97 100 97 90 77 77 61 58 58 61 61 61 65 61 61 58 52 52 55 48 45 48 48 45 42 42 35 29 32 35 35 29 35 32 39 29 29 32 32 32 26
94 97 100 100 100 94 84 74 55 55 55 58 58 58 61 58 58 58 52 48 42 35 45 45 48 45 39 32 32 35 26 35 35 35 39 26 26 23 19 16 29 23 16
87 94 100 100 100 97 81 81 74 65 65 65 52 55 58 52 52 48 42 42 32 29 32 32 35 29 23 6 0 6 29 32 29 26 26 23 23 6 0 0 0 0 16
90 90 90 94 100 94 84 84 81 74 71 61 55 55 52 55 45 35 35 35 35 35 35 35 32 32 19 3 0 0 6 26 26 29 26 16 6 6 13 0 0 0 0
90 94 94 94 84 84 87 84 81 81 74 65 48 52 48 48 42 39 35 39 35 29 32 26 19 23 16 3 0 0 0 16 23 26 19 23 19 13 13 13 3 3 3
84 87 87 87 84 84 84 77 74 74 77 68 52 48 48 42 35 35 35 35 32 26 26 26 23 23 16 6 0 0 13 19 19 19 19 19 19 10 0 0 3 0 3
84 87 87 84 77 77 74 77 74 74 68 58 52 45 45 35 32 35 35 32 32 29 23 19 19 19 16 6 0 0 10 16 13 16 16 0 3 0 0 0 0 0 0
74 77 81 77 61 71 71 68 68 65 55 48 45 45 39 35 29 29 26 26 19 23 23 19 19 16 13 10 0 0 6 6 6 6 10 3 0 0 0 0 0 0 0
74 71 71 58 52 55 65 55 55 52 52 42 35 32 32 23 23 23 23 16 16 19 16 16 13 13 10 6 0 0 0 0 6 6 6 3 0 0 0 0 0 0 0
58 58 48 48 48 48 48 42 32 26 26 29 29 23 26 19 19 19 16 13 13 6 13 10 10 6 3 3 0 0 0 0 0 0 0 0 0 0 0 0 0 0 0
48 48 48 35 29 29 32 23 19 23 23 23 23 23 23 19 19 16 10 13 6 10 6 6 6 3 3 3 3 3 0 0 0 0 0 0 0 0 0 0 0 0 0
29 26 29 19 16 23 19 13 16 19 23 16 19 19 13 6 6 10 10 6 6 6 6 6 6 3 3 3 3 3 3 0 0 0 0 0 0 0 0 0 0 0 0
16 16 10 13 13 10 10 6 13 13 13 13 10 10 10 13 10 10 10 3 0 0 0 0 0 0 0 0 0 0 0 0 0 0 0 0 0 0 0 0 0 0 0

GEFSMW_con_cape1000_144.txt.gz
Probability
87 84 84 84 90 97 94 97 97 94 87 81 77 77 77 81 84 90 90 90 97 97 97 97 94 97 100 100 87 81 90 94 94 81 71 74 58 61 84 65 52 35 52
84 90 84 84 90 97 97 97 97 94 87 81 81 81 77 71 81 84 81 81 94 90 84 97 94 100 97 97 90 97 94 84 87 87 71 52 45 52 35 65 61 52 55
90 90 87 90 94 94 94 94 94 94 90 84 77 81 74 68 81 81 84 87 87 87 90 94 97 97 94 97 97 94 87 87 84 74 74 55 19 42 52 61 58 58 68
84 87 87 90 90 94 94 94 94 94 90 84 77 61 61 58 65 68 77 87 87 87 84 81 87 94 94 94 94 87 90 87 81 84 87 81 65 35 26 45 45 52 58
81 84 90 90 90 90 94 94 94 90 90 90 84 77 65 68 74 71 84 84 87 84 84 84 84 84 90 94 94 94 90 94 84 87 84 84 84 48 35 19 32 58 58
74 84 90 94 90 90 97 94 94 90 94 87 84 77 74 77 77 68 68 71 84 87 71 81 90 90 84 90 90 94 94 97 94 90 84 87 77 65 55 23 32 32 55
81 81 90 94 90 90 97 97 97 94 94 87 84 84 84 87 84 61 65 71 74 77 77 74 84 84 81 87 94 90 90 90 90 84 87 94 81 71 61 48 35 29 35
71 74 87 87 94 94 97 97 97 94 94 84 84 81 81 77 74 74 71 74 71 77 74 77 81 84 77 81 84 87 87 87 94 74 90 84 74 61 61 48 39 26 23
77 81 84 87 94 97 97 97 97 94 94 84 84 87 81 77 74 77 77 68 74 65 71 61 71 74 71 81 87 77 84 90 81 77 81 81 81 68 65 61 48 23 10
77 84 81 87 97 97 100 100 100 100 97 94 84 74 77 81 68 68 74 71 71 71 61 55 61 65 71 68 81 81 77 71 81 84 77 61 61 58 58 52 42 42 39
74 81 90 94 94 97 100 100 100 100 97 94 94 84 84 74 61 65 71 65 65 65 55 55 58 61 65 65 68 68 61 58 65 61 65 68 61 61 58 55 52 42 35
77 84 94 100 100 100 97 100 100 100 100 94 94 90 90 81 74 68 74 68 65 65 65 65 65 61 58 61 58 52 48 55 61 52 52 55 52 55 55 48 42 48 32
81 90 100 100 100 100 100 100 100 97 97 90 94 90 90 87 84 77 74 74 77 71 68 68 68 61 58 58 52 52 48 48 45 48 48 42 42 52 52 48 48 35 16
97 97 100 100 100 100 100 100 97 90 87 94 94 87 84 84 77 74 71 71 71 71 68 68 55 61 52 45 52 39 42 42 42 42 45 45 42 45 48 42 45 32 23
90 97 100 100 100 100 100 100 97 97 90 90 90 84 81 77 74 74 68 65 68 65 68 65 52 45 42 39 39 42 35 39 39 42 35 35 29 23 26 23 32 26 23
90 94 97 97 97 97 100 97 97 97 90 90 87 87 77 71 68 68 68 68 68 61 61 52 42 39 23 13 6 13 35 39 39 35 32 29 19 10 6 0 0 3 10
87 94 97 97 97 97 97 97 97 94 94 90 87 87 77 71 65 61 65 61 61 58 55 48 42 35 19 10 3 0 16 23 32 35 35 26 19 13 16 6 0 0 0
90 94 94 97 97 97 94 94 94 94 94 90 87 81 74 61 65 61 58 55 55 52 52 48 39 32 16 6 0 0 6 16 23 29 29 26 29 16 10 13 13 10 6
94 97 97 94 97 97 97 94 90 90 84 81 81 71 65 65 61 55 55 45 48 45 42 42 32 26 16 3 0 0 6 19 23 23 23 26 19 10 3 3 3 3 0
97 97 97 97 97 97 97 90 84 77 77 77 77 68 65 61 52 55 45 42 35 39 39 39 32 23 16 3 3 0 0 10 19 23 16 10 6 3 0 3 3 3 3
94 94 94 90 90 94 94 87 84 74 74 68 71 68 65 55 55 55 48 48 35 35 32 29 29 23 16 6 3 0 0 10 13 13 13 10 0 0 0 0 3 3 3
87 84 81 81 84 84 87 81 71 71 74 68 65 65 61 52 48 48 48 48 45 32 29 26 23 19 16 3 0 0 0 0 3 6 3 3 0 0 0 0 0 0 0
77 74 74 74 71 65 65 65 68 68 68 58 61 55 55 52 45 42 39 35 32 26 23 19 19 19 16 3 0 0 0 0 0 3 3 0 0 0 0 0 0 0 0
71 68 68 61 58 58 58 55 48 48 58 52 52 45 42 39 35 29 26 26 23 19 19 23 16 19 16 6 0 0 0 0 0 0 0 0 0 0 0 0 0 0 0
65 65 61 52 42 39 39 39 42 42 42 39 39 35 35 26 29 23 16 13 13 3 6 13 16 13 6 0 0 0 0 0 0 0 3 0 0 0 0 0 0 0 0
42 42 39 29 29 29 32 29 32 35 35 26 23 19 19 13 19 23 10 3 0 0 0 0 0 0 0 0 0 0 0 0 0 0 0 3 0 0 0 0 0 0 0

GEFSMW_con_cape1000_150.txt.gz
Probability
65 61 68 71 71 68 68 61 55 52 45 42 39 39 35 26 19 23 35 29 26 26 10 23 16 10 10 3 3 0 0 0 0 0 0 0 0 0 0 0 0 0 0
74 68 74 81 84 74 68 61 55 52 45 48 39 35 32 26 16 13 23 29 29 23 35 13 13 10 10 6 3 0 0 0 0 0 0 0 0 0 0 0 0 0 0
74 71 74 81 84 84 77 77 61 48 48 52 39 32 26 19 10 10 6 13 23 26 23 13 6 10 10 6 6 3 0 0 0 0 0 0 0 0 0 0 0 0 0
71 65 68 68 84 84 84 81 61 55 45 42 35 29 26 23 19 10 6 10 16 29 16 19 10 13 13 10 10 10 3 3 0 0 0 0 0 0 0 0 0 0 0
68 68 65 68 74 84 87 90 81 61 58 48 42 29 26 26 19 13 13 13 13 16 29 23 19 13 6 6 10 10 6 3 0 0 0 0 0 0 0 0 0 0 0
65 68 74 71 77 87 87 90 81 74 68 55 48 32 26 26 26 19 19 16 10 13 23 32 10 10 10 10 10 10 10 6 6 0 0 0 0 0 0 0 0 0 0
65 71 81 84 87 87 87 90 87 74 68 61 52 42 35 26 23 19 23 19 13 16 19 19 10 10 10 10 13 10 13 10 10 3 3 3 0 0 0 0 0 0 0
65 71 81 84 87 87 87 87 84 74 65 61 52 42 32 29 23 19 23 23 16 13 13 16 10 6 13 16 10 13 13 13 6 6 3 3 0 0 0 0 0 0 0
68 68 68 74 77 87 87 84 77 71 68 61 58 52 35 35 23 23 16 13 13 13 13 13 13 10 10 6 6 6 6 3 3 3 3 3 3 3 0 0 0 0 0
65 61 68 65 71 77 84 77 74 65 65 58 55 58 39 32 23 23 16 13 13 13 13 13 13 13 10 6 3 3 3 3 3 3 3 3 3 3 3 3 3 0 0
68 61 71 71 74 84 81 84 74 61 58 58 52 45 39 35 26 23 26 19 19 19 16 16 16 10 10 6 3 3 3 3 3 3 3 3 3 3 3 3 3 3 0
61 58 61 74 74 77 77 81 74 68 58 55 45 45 39 32 32 32 29 26 23 19 16 16 10 6 6 6 3 3 6 6 6 3 3 3 3 3 3 3 3 3 0
61 65 65 71 74 87 77 74 74 71 65 58 48 45 39 35 32 32 29 29 26 23 23 10 10 10 10 10 10 10 13 10 10 10 10 10 6 6 3 3 0 0 0
68 71 68 71 74 81 84 87 74 71 71 68 58 45 39 39 39 32 26 29 29 23 19 16 10 10 10 6 6 10 10 10 10 10 10 6 6 6 3 3 0 0 0
68 68 71 74 71 81 87 87 81 68 81 68 52 48 39 42 39 32 32 29 29 26 23 19 19 13 13 16 16 19 19 19 13 13 13 13 6 10 3 6 3 0 0
71 71 74 71 74 81 87 84 77 68 61 58 48 42 42 35 32 32 29 26 26 19 16 19 16 19 16 13 13 10 10 10 6 6 6 6 3 6 3 0 0 0 0
77 77 77 81 84 87 87 90 77 61 55 55 55 42 39 39 35 29 29 26 23 16 13 16 16 13 13 10 3 0 0 3 3 3 3 6 6 3 0 0 0 0 0
71 77 77 77 84 84 90 81 71 65 61 48 42 39 35 35 29 23 23 19 19 13 13 13 13 13 13 6 3 0 0 0 0 3 3 0 0 0 0 0 0 0 0
74 81 74 74 74 74 84 68 71 55 61 45 42 39 35 35 29 26 23 19 16 16 10 13 13 13 3 3 3 0 0 0 0 0 0 0 0 0 0 0 0 0 0
71 74 74 71 68 68 71 68 65 55 48 42 35 29 29 26 23 26 16 10 13 16 13 10 10 10 3 3 3 0 0 0 0 0 0 0 0 0 0 0 0 0 0
65 71 68 61 58 61 61 55 58 55 48 39 35 29 23 23 23 19 16 16 10 13 10 10 6 6 6 3 0 0 0 0 0 0 0 0 0 0 0 0 0 0 0
61 52 58 58 58 58 58 55 55 52 42 42 39 29 23 23 26 19 19 13 13 13 10 6 6 6 6 0 0 0 0 0 0 0 0 0 0 0 0 0 0 0 0
48 45 48 42 42 42 55 55 52 42 42 29 23 19 23 23 19 13 13 16 13 13 13 6 6 6 0 0 0 0 0 0 0 0 0 0 0 0 0 0 0 0 0
42 32 35 35 35 39 42 39 32 35 32 26 23 19 13 13 10 10 6 10 10 10 6 6 6 3 0 0 0 0 0 0 0 0 0 0 0 0 0 0 0 0 0
16 29 29 29 23 23 26 32 23 23 19 13 16 16 16 3 3 0 0 0 0 0 0 0 0 0 0 0 0 0 0 0 0 0 0 0 0 0 0 0 0 0 0
19 19 16 13 19 13 13 13 10 10 16 13 13 3 0 0 0 0 0 0 0 0 0 0 0 0 0 0 0 0 0 0 0 0 0 0 0 0 0 0 0 0 0

GEFSMW_con_cape1000_156.txt.gz
Probability
29 26 26 35 29 29 32 35 26 23 29 23 19 13 10 13 6 10 3 3 3 0 3 3 0 3 3 0 0 0 0 0 0 0 0 0 0 0 0 0 0 0 0
29 26 29 39 35 29 32 35 23 19 23 26 23 16 16 10 10 6 3 3 6 3 3 0 0 3 3 0 0 0 0 0 0 0 0 0 0 0 0 0 0 0 0
39 35 35 45 48 45 35 35 23 23 23 23 16 13 13 13 13 3 3 6 3 6 3 0 0 0 3 6 3 3 0 0 0 0 0 0 0 0 0 0 0 0 0
45 42 42 45 52 52 48 42 32 26 19 16 16 19 19 19 10 6 0 0 3 3 6 0 0 0 0 0 0 0 0 0 3 0 0 0 0 0 0 0 0 0 0
52 48 48 48 48 61 61 48 35 29 23 23 23 16 19 13 10 6 3 3 3 3 6 3 3 3 3 0 0 0 0 0 0 0 0 0 0 0 0 0 0 0 0
48 52 45 42 58 65 71 68 45 35 29 29 26 23 23 16 13 13 10 10 10 3 3 6 3 3 3 0 0 0 0 0 0 0 0 0 0 0 0 0 0 0 0
45 48 48 48 58 61 71 68 55 42 29 29 26 29 26 19 16 16 13 13 10 10 6 10 6 6 6 6 6 3 3 3 3 3 3 3 3 0 0 0 0 0 0
52 45 45 52 55 65 77 71 65 48 39 39 29 26 26 29 23 10 10 6 6 6 6 10 10 10 10 10 6 6 3 3 3 0 0 0 0 0 0 0 0 0 0
55 48 58 58 58 68 77 77 65 55 48 48 35 29 23 16 19 13 10 6 13 6 6 10 10 13 10 6 6 6 6 6 0 3 3 3 3 0 0 0 0 3 6
58 55 48 61 61 71 77 71 65 58 39 42 32 29 26 23 16 6 6 10 13 13 13 13 13 13 10 6 3 3 3 6 6 6 3 3 3 3 3 3 3 0 3
65 58 52 61 65 68 68 71 65 48 42 42 39 39 26 16 16 13 10 10 10 13 13 13 13 10 6 6 3 3 3 3 3 6 6 3 3 3 3 3 3 3 0
52 48 55 52 55 61 55 65 58 55 52 39 32 32 29 26 23 19 19 19 16 19 13 13 13 6 6 6 6 6 6 3 3 3 3 3 3 3 3 3 3 3 3
45 42 55 55 55 61 65 58 55 48 45 39 35 35 23 23 23 23 23 23 19 19 16 16 13 10 6 6 6 6 6 6 6 6 6 3 3 3 3 3 3 0 0
52 48 55 55 55 61 68 65 55 45 42 42 39 35 26 26 26 26 19 23 23 23 19 13 10 10 10 3 3 3 3 3 0 0 0 0 0 0 0 0 0 0 0
48 52 58 52 52 55 65 61 52 42 42 42 39 35 35 29 26 26 26 23 26 19 16 10 3 3 3 3 3 3 3 3 3 0 3 3 0 0 0 0 6 6 0
52 55 55 55 55 61 61 52 48 42 35 39 39 39 35 29 29 26 23 16 13 13 13 3 3 3 3 3 0 3 6 6 10 13 13 3 0 0 0 0 0 0 3
55 58 58 58 55 58 65 58 55 48 42 39 39 39 32 29 26 23 23 16 13 10 6 6 6 6 3 0 0 0 0 3 6 6 6 3 3 0 3 3 0 0 0
45 45 52 58 48 42 48 48 45 39 29 42 35 26 19 13 16 19 23 19 19 13 10 6 6 6 6 0 0 0 0 3 3 6 0 0 3 0 3 3 0 0 0
39 42 42 48 48 52 55 48 45 39 39 42 32 29 23 16 10 10 13 13 19 19 13 6 6 3 6 0 0 0 0 0 0 0 0 0 0 0 0 0 0 0 0
48 42 42 39 35 42 45 52 45 35 29 29 29 29 23 13 13 13 10 6 6 6 6 6 3 3 3 0 0 0 0 0 0 0 0 0 0 0 0 0 0 0 0
48 39 39 39 32 35 35 35 42 42 32 29 26 19 13 10 10 10 10 10 3 3 3 6 0 0 0 0 0 0 0 0 3 0 0 0 0 0 0 0 0 0 0
45 42 45 45 39 35 32 35 35 29 26 23 19 19 13 13 13 10 6 3 6 6 3 3 3 0 0 0 0 0 0 0 0 0 0 0 0 0 0 0 0 0 0
42 39 42 35 32 32 35 35 32 19 19 16 16 16 16 13 13 10 6 3 3 10 10 6 6 0 0 0 0 0 0 0 0 0 0 0 0 0 0 0 0 0 0
16 16 19 29 29 23 16 19 13 10 13 13 13 13 16 16 10 6 6 6 6 6 6 6 3 0 0 3 0 0 0 0 0 0 0 0 0 0 0 0 0 0 0
10 10 10 19 19 16 13 3 0 3 10 6 6 6 6 13 13 3 0 0 6 6 6 6 3 3 0 0 0 0 0 0 0 0 0 0 0 0 0 0 0 0 0
10 10 10 6 6 6 6 0 0 3 6 6 6 6 6 6 0 0 0 0 0 0 0 0 0 0 0 0 0 0 0 0 0 0 0 0 0 0 0 0 0 0 0

GEFSMW_con_cape1000_162.txt.gz
Probability
77 81 81 81 81 87 94 94 94 90 87 84 74 71 74 68 74 71 68 77 81 77 90 68 81 87 81 81 55 74 71 61 71 58 52 45 32 32 55 45 42 45 55
71 81 81 84 77 87 90 90 94 94 87 90 87 84 77 77 74 65 74 81 81 77 61 90 90 90 94 94 87 87 71 71 68 71 58 42 45 68 13 48 45 35 48
68 77 77 77 81 94 90 90 97 94 90 87 87 77 84 87 71 81 77 71 74 74 74 77 81 90 81 81 90 87 77 71 74 65 58 35 39 26 39 35 39 48 48
71 71 71 81 87 94 94 94 97 94 94 90 87 84 87 77 77 81 71 71 61 68 61 68 74 87 87 90 87 68 81 77 55 65 68 48 55 39 35 45 16 26 45
74 74 74 71 84 94 94 94 94 94 90 87 84 90 84 77 71 71 71 71 61 68 65 61 71 94 87 90 81 84 87 77 65 65 71 65 71 45 55 35 26 26 26
74 74 71 84 87 87 94 94 94 97 87 87 87 90 84 77 77 74 68 68 77 77 61 65 74 81 87 84 84 81 74 87 87 81 61 61 45 52 58 45 58 52 32
65 71 81 87 87 90 94 94 97 97 97 87 87 94 87 81 77 77 77 77 58 61 71 71 81 74 77 77 74 71 71 74 84 94 74 61 52 48 52 48 48 48 35
81 77 81 87 94 90 94 94 100 100 97 94 94 97 90 87 68 84 65 68 55 48 65 58 68 71 74 58 71 65 68 68 71 61 77 71 39 39 52 48 48 29 29
81 81 81 81 87 94 94 94 100 100 97 94 90 94 94 87 84 77 74 61 68 52 55 61 65 68 68 71 71 61 61 65 71 58 58 58 48 45 45 45 45 42 29
84 81 81 81 84 90 94 94 97 100 100 94 90 90 94 90 87 74 71 61 68 65 52 58 58 61 68 65 68 71 68 71 65 71 68 65 48 52 55 52 48 42 39
87 87 90 94 97 94 94 100 100 100 100 100 90 90 94 87 81 84 77 68 68 65 61 61 61 55 58 65 61 55 55 61 52 48 42 45 55 48 42 52 52 48 52
84 90 97 97 100 100 100 100 100 100 100 97 97 97 97 90 77 74 71 74 68 65 65 52 48 52 52 39 39 45 42 42 45 45 45 45 42 52 55 52 45 52 55
90 94 97 100 100 100 100 100 100 100 97 97 97 97 90 87 84 71 74 74 68 65 61 65 52 52 52 48 45 39 35 45 39 35 39 39 39 42 45 48 45 39 19
94 97 97 97 97 97 97 97 97 97 94 94 94 94 87 87 87 81 77 74 65 68 68 65 52 48 42 35 39 35 35 35 39 39 39 35 42 45 39 42 48 35 26
94 97 97 97 97 97 97 97 94 97 97 97 97 94 90 87 87 84 74 74 71 61 65 65 52 48 39 32 35 39 29 35 35 35 29 19 16 13 19 16 29 35 26
97 94 94 94 97 97 97 97 97 97 97 97 97 94 90 87 87 84 74 77 71 61 58 55 45 45 26 13 6 16 26 32 32 32 26 19 16 10 3 0 0 3 13
87 94 94 94 94 94 94 94 94 90 90 87 84 81 81 81 84 71 74 74 65 61 61 55 52 35 26 10 0 0 23 26 29 29 26 16 10 10 19 6 0 0 0
90 90 94 94 94 94 90 90 90 90 90 84 81 81 81 81 81 74 65 55 58 55 55 45 35 35 26 6 0 0 3 16 19 23 19 16 16 16 16 16 10 13 10
87 87 87 87 90 90 90 90 90 90 84 81 81 81 81 77 74 71 68 55 48 48 35 35 35 32 26 10 0 0 10 23 19 16 16 16 16 10 3 10 10 10 10
77 84 84 81 87 87 90 90 90 90 84 81 81 74 74 74 68 65 61 48 39 39 35 32 32 29 23 13 0 0 13 16 19 13 13 6 6 6 0 6 6 10 10
81 81 81 81 81 81 84 84 84 81 68 71 71 68 71 65 61 58 55 45 42 39 39 39 29 26 19 13 3 0 6 10 10 10 6 6 3 0 0 0 6 10 6
77 77 77 74 81 81 77 77 74 71 61 61 58 58 55 52 52 45 45 39 45 42 42 35 26 23 23 13 6 0 0 3 10 16 16 6 0 0 0 0 0 0 0
74 71 71 71 68 71 74 71 68 65 61 58 52 48 52 45 45 45 45 42 39 39 32 29 23 19 13 6 0 0 0 0 3 13 6 0 0 0 0 0 0 0 0
71 65 68 61 65 65 68 65 65 65 58 58 45 45 39 42 35 42 32 32 23 23 26 26 19 19 16 10 3 3 0 0 0 0 0 0 0 0 0 0 0 0 0
55 55 58 58 52 52 58 55 61 65 55 48 48 32 32 32 23 23 19 23 19 13 16 19 13 13 13 6 0 3 3 3 3 0 0 0 0 0 0 0 0 0 0
52 52 52 48 39 35 39 39 55 55 48 42 39 29 19 23 16 13 6 0 0 0 0 0 0 3 0 0 0 0 0 0 0 0 0 0 0 0 0 0 0 0 0

GEFSMW_con_cape1000_168.txt.gz
Probability
65 77 81 84 90 94 97 97 97 97 97 97 90 90 90 87 87 87 87 87 97 97 94 90 100 97 90 90 84 84 81 74 77 74 68 61 65 68 81 68 52 48 55
81 84 87 84 87 97 97 97 97 97 97 97 90 90 90 90 84 84 87 94 90 87 84 97 90 90 87 81 81 81 77 68 71 77 74 61 61 65 35 65 71 58 55
77 84 84 87 90 97 97 97 97 97 97 97 94 94 94 90 84 84 81 90 90 90 90 94 77 84 87 81 77 77 77 71 77 77 77 58 39 58 65 68 61 65 71
81 84 87 90 94 97 94 97 97 97 97 97 94 94 90 90 84 84 84 87 87 87 90 87 84 87 84 81 74 74 84 84 74 81 71 68 74 48 55 61 48 58 55
74 90 87 87 90 94 97 100 100 100 97 97 97 97 97 97 90 87 84 84 84 84 77 74 77 77 81 77 77 77 84 81 71 71 68 61 74 65 65 29 42 45 48
61 81 84 94 90 90 100 100 100 100 100 97 97 97 97 90 87 81 84 81 77 77 74 74 77 84 81 77 84 74 74 87 77 74 65 61 55 58 45 42 39 42 48
65 77 90 94 97 97 100 100 100 100 97 97 97 97 94 94 87 87 87 87 77 74 74 74 77 81 77 81 87 77 77 81 77 77 68 65 61 65 58 45 39 42 48
61 74 87 97 97 97 100 100 100 100 97 97 97 94 90 90 90 87 84 81 81 77 81 74 84 81 77 77 81 84 77 77 74 71 81 77 68 65 52 48 39 32 19
71 77 81 84 90 97 97 100 100 100 97 97 94 90 90 90 94 97 84 81 81 74 74 81 77 74 74 74 77 84 84 77 74 71 71 61 58 61 68 61 45 19 6
55 81 87 90 94 97 97 100 100 100 100 97 97 94 94 94 97 94 84 84 84 81 74 77 81 77 77 77 77 77 84 84 74 71 68 61 58 65 58 58 48 52 29
55 71 84 87 90 94 97 100 100 100 100 100 97 97 94 94 94 90 90 87 87 84 74 77 77 77 74 77 74 77 74 65 68 58 52 48 58 48 42 45 45 45 35
58 65 81 90 87 94 97 97 100 100 100 100 100 100 97 94 90 90 90 90 90 77 77 71 77 74 77 74 74 58 55 52 48 55 55 45 32 39 32 42 39 32 29
74 81 84 94 94 94 97 97 100 100 100 100 100 100 100 97 94 94 87 87 87 90 77 84 77 68 68 58 58 52 52 42 35 48 48 48 35 32 29 35 35 35 19
87 94 94 97 94 94 100 97 97 97 97 97 100 100 97 97 94 94 94 94 94 87 84 77 68 61 55 52 48 48 45 39 39 42 39 39 39 39 42 26 26 26 29
94 94 100 100 100 100 100 97 97 97 97 97 97 97 90 90 90 87 87 87 87 81 81 71 58 52 42 35 35 39 39 35 29 29 32 29 16 10 19 13 19 19 23
84 100 97 97 97 97 97 97 94 94 97 94 94 94 90 94 87 87 87 87 87 84 74 61 48 42 29 19 13 19 32 39 32 29 26 23 16 10 3 3 0 6 13
90 90 90 94 94 94 94 94 94 94 94 94 94 94 94 90 87 84 84 84 81 77 68 71 52 35 26 10 6 3 10 26 35 29 29 19 16 10 10 6 0 0 0
87 90 90 90 94 94 94 94 94 94 94 90 90 90 94 90 87 77 74 81 74 68 68 65 61 35 26 10 6 3 3 16 29 26 26 26 16 10 10 13 13 13 6
90 90 90 90 90 90 94 90 94 90 90 90 90 87 84 77 74 71 71 74 71 74 68 55 48 35 29 6 3 0 10 19 19 19 16 19 19 6 3 6 13 13 6
87 87 87 87 87 90 84 81 81 81 84 84 87 87 81 77 74 74 74 71 71 65 58 52 48 39 32 6 3 0 6 19 23 23 16 10 6 3 0 6 10 10 6
87 87 87 87 84 87 87 84 77 74 74 74 74 74 74 74 77 77 71 65 65 68 61 52 42 32 26 10 3 0 3 19 16 16 19 10 3 0 0 0 6 6 6
87 87 81 81 81 81 77 81 81 74 74 71 74 71 68 61 61 71 74 65 65 61 58 55 42 29 23 10 6 0 0 0 10 13 16 6 0 0 0 0 0 0 0
81 84 81 81 77 81 77 74 77 74 74 68 68 68 68 71 68 68 65 61 65 55 48 42 35 26 19 13 3 0 0 0 0 3 0 0 0 0 0 0 0 0 0
77 77 77 74 71 71 71 71 74 68 74 77 71 68 68 61 58 55 42 39 35 32 35 39 35 32 16 10 3 3 0 0 0 0 0 0 0 0 0 0 0 0 0
68 71 68 68 61 61 65 58 65 71 68 68 65 55 55 48 52 35 26 23 23 19 23 26 19 16 10 3 0 3 0 3 0 0 0 0 0 0 0 0 0 0 0
68 65 65 65 61 61 58 61 58 65 65 58 55 45 52 45 42 26 13 3 0 0 0 0 3 10 3 3 0 0 0 0 0 0 0 0 0 0 0 0 0 0 0

GEFSMW_con_cape1000_174.txt.gz
Probability
26 29 48 55 48 45 42 48 55 42 39 42 48 42 32 32 23 26 32 16 26 35 26 23 19 16 13 6 3 10 16 13 10 6 3 0 0 0 0 0 0 3 6
32 42 52 61 61 55 58 45 58 58 48 45 48 42 29 29 23 23 35 32 29 26 39 32 26 13 16 10 6 6 10 10 10 3 0 0 0 0 0 0 0 0 3
32 42 52 58 61 58 65 55 58 71 61 58 61 45 32 32 39 35 42 39 35 29 29 29 23 23 13 13 10 10 10 10 10 6 0 0 0 0 0 0 0 0 0
26 39 61 61 68 68 68 68 65 68 77 68 65 58 48 42 26 29 32 42 42 35 29 23 29 19 19 19 13 10 10 10 10 6 3 3 0 3 0 0 0 0 0
35 48 61 61 68 77 81 81 81 77 77 81 71 58 55 42 32 35 32 35 35 39 45 39 32 26 26 19 19 13 13 10 13 10 6 6 3 3 3 0 0 0 0
48 55 58 58 58 74 81 81 84 84 84 77 74 61 58 52 39 39 39 32 32 35 39 42 35 23 26 29 19 16 16 13 13 13 6 6 3 3 0 0 0 0 0
52 61 55 58 65 84 81 87 87 87 87 81 77 71 65 61 45 39 39 39 35 39 39 39 32 32 29 23 13 19 16 13 13 13 6 6 3 3 0 0 0 0 0
52 58 55 61 74 84 87 87 87 87 90 87 77 74 68 61 45 45 39 42 39 39 35 35 32 32 26 29 19 23 19 19 10 10 6 10 3 0 0 0 0 0 0
45 48 58 71 81 81 90 87 90 87 90 90 84 74 71 65 58 55 45 45 39 35 35 32 29 29 29 19 16 13 19 16 10 10 10 10 3 0 0 0 0 0 0
55 55 52 71 68 71 90 90 90 90 90 90 84 84 71 68 58 58 52 45 42 42 35 35 35 35 35 26 19 23 23 13 10 3 3 0 0 0 0 0 0 0 0
52 61 61 68 68 71 81 90 94 90 90 87 84 87 81 68 61 55 52 48 45 42 42 39 39 39 32 26 26 26 29 16 16 13 10 3 0 0 0 0 0 0 0
48 55 58 65 71 74 71 81 90 90 90 90 84 84 81 68 58 52 48 45 39 39 39 39 39 32 19 19 23 23 23 16 13 16 10 6 3 0 0 0 0 0 0
52 55 55 61 61 65 71 77 90 94 90 87 77 77 74 68 65 61 58 48 39 35 39 35 23 19 19 19 19 19 16 13 13 10 10 6 3 3 3 0 0 0 0
45 48 55 61 61 58 68 68 77 90 94 87 81 77 77 74 68 61 61 55 52 45 42 26 23 19 19 19 19 23 16 10 6 6 6 6 0 0 0 0 3 3 0
45 48 52 55 58 58 65 65 81 81 90 90 81 81 77 61 61 55 58 48 52 48 29 26 26 19 19 19 19 19 16 13 13 10 6 6 3 3 0 3 0 0 0
45 52 42 55 65 65 68 68 77 87 84 84 84 74 68 61 61 55 45 45 48 32 23 23 23 23 23 13 10 10 10 6 6 6 6 3 0 3 0 0 0 0 0
32 42 52 61 61 65 74 77 84 87 84 81 77 77 61 65 68 58 55 48 42 35 29 26 26 26 16 13 10 0 6 6 6 6 6 3 3 3 3 0 0 0 0
52 55 58 65 68 71 77 84 81 81 84 71 71 71 68 65 61 61 55 48 39 29 29 29 23 23 13 10 3 0 0 0 6 6 3 3 3 3 3 3 0 0 0
55 55 65 65 68 71 77 77 77 81 81 68 68 65 61 55 55 48 42 48 42 23 23 23 23 13 13 13 6 0 0 3 3 3 3 3 3 3 0 0 0 0 0
61 68 61 68 65 65 65 65 61 74 77 74 65 61 61 58 55 45 45 42 39 39 29 26 13 13 13 6 3 0 0 3 3 3 3 0 0 0 0 0 0 0 0
65 55 58 58 61 55 58 61 61 68 68 68 61 55 52 52 48 45 42 35 32 29 23 16 13 10 6 3 0 0 0 3 3 3 3 3 0 0 0 0 0 0 0
55 55 55 55 61 58 61 65 65 61 58 58 58 52 48 45 35 35 32 32 29 29 29 19 13 10 6 3 0 0 0 0 0 0 0 0 0 0 0 0 0 0 0
52 55 52 52 52 58 58 65 55 52 52 48 39 42 42 35 32 35 32 29 26 32 23 19 13 10 3 3 3 0 0 0 0 0 0 0 0 0 0 0 0 0 0
48 39 42 42 45 48 55 52 52 52 45 35 32 26 29 26 23 19 19 19 19 23 16 16 10 10 3 3 0 0 0 0 0 0 0 0 0 0 0 0 0 0 0
45 39 42 39 42 45 45 45 48 45 35 32 29 23 19 23 19 16 16 16 16 16 16 13 6 10 10 3 0 0 0 0 0 0 0 0 0 0 0 0 0 0 0
39 32 32 39 32 39 42 42 42 32 29 26 29 16 13 16 13 10 6 0 3 6 3 3 0 0 0 0 0 0 0 0 0 0 0 0 0 0 0 0 0 0 0

GEFSMW_con_cape1000_180.txt.gz
Probability
10 10 13 6 10 13 16 16 16 13 3 10 3 6 10 10 6 10 6 6 10 10 6 6 10 10 10 10 3 3 6 10 10 6 3 0 0 0 0 0 3 3 0
6 10 10 10 10 16 16 13 13 10 6 13 16 13 16 13 10 10 6 13 10 10 10 6 6 6 13 10 6 3 6 10 10 10 3 0 0 0 0 0 0 0 0
6 16 13 10 13 16 16 16 19 16 10 10 13 13 16 16 16 13 6 13 19 16 16 13 10 6 10 10 10 6 10 10 10 10 10 3 0 0 0 0 0 0 0
6 16 16 16 16 23 26 16 19 23 19 16 16 23 19 19 16 10 10 6 16 19 19 16 13 13 10 6 6 6 6 10 10 10 3 0 0 0 0 0 0 0 0
10 13 23 23 32 35 35 35 29 29 23 23 23 26 23 13 13 13 13 13 16 19 23 23 13 10 10 10 6 6 6 10 10 10 6 3 0 0 0 0 0 0 0
10 16 29 32 39 42 42 39 32 32 29 26 19 19 23 16 16 10 13 13 16 16 29 26 13 6 6 6 6 6 10 6 3 6 6 6 6 6 3 3 3 0 0
16 23 26 39 42 42 48 45 39 39 32 32 26 19 23 23 23 19 16 13 16 23 19 23 19 10 10 10 6 6 6 6 6 10 10 6 6 6 0 3 0 0 0
19 23 26 35 42 45 48 48 42 42 35 35 35 35 29 26 35 29 26 26 29 29 23 23 23 23 13 13 10 6 10 10 10 10 13 10 6 0 0 0 0 0 0
23 26 35 39 42 45 45 52 52 42 35 45 52 45 45 39 39 35 26 29 23 29 26 23 23 26 23 19 19 13 16 10 6 6 10 10 10 10 0 0 0 0 0
29 39 35 39 39 48 42 52 55 52 42 52 55 58 48 48 42 35 29 32 26 32 26 23 26 26 19 16 16 16 13 10 10 6 6 6 3 0 3 3 0 0 0
32 35 35 42 45 45 45 48 52 55 61 71 61 55 61 48 42 42 42 32 32 32 29 29 29 23 13 16 16 13 13 10 6 3 6 6 6 3 3 3 3 0 0
35 35 39 42 42 39 42 45 42 48 58 65 58 58 58 52 52 48 45 42 39 29 29 26 23 19 19 13 13 13 13 16 16 13 13 13 6 3 6 0 0 0 0
39 32 35 42 45 45 45 52 48 52 58 58 58 58 58 52 48 42 39 42 35 29 26 26 23 19 16 16 13 13 16 19 19 16 10 10 10 6 3 3 3 0 0
35 26 26 35 48 55 52 52 52 52 61 61 55 58 52 45 48 45 42 39 32 29 26 23 19 19 19 19 23 23 19 19 16 10 10 10 10 10 10 3 6 3 0
29 32 32 42 45 45 42 42 45 52 61 58 58 55 55 55 42 42 39 35 32 32 23 19 19 19 19 19 23 23 16 19 13 6 6 6 6 3 3 0 0 3 0
26 32 32 42 52 52 48 42 42 61 55 55 58 52 58 55 45 39 32 29 23 19 16 19 19 19 19 13 10 13 13 10 10 10 6 6 3 3 0 0 0 0 0
32 29 35 39 39 42 52 48 45 61 68 65 65 55 61 55 45 39 32 29 19 19 16 16 16 16 16 10 0 0 0 6 6 6 3 3 3 3 3 3 0 0 0
32 29 29 29 39 42 42 48 55 61 61 58 58 55 58 55 42 39 32 26 19 19 19 16 13 13 10 3 0 0 0 0 3 6 6 6 6 3 3 3 3 3 0
26 29 32 32 35 42 42 39 48 58 58 58 52 48 45 45 45 29 32 19 19 16 16 16 13 13 6 3 0 0 0 3 3 3 3 3 3 0 0 0 3 3 3
29 26 29 35 39 48 35 45 52 58 61 48 48 39 39 48 42 32 26 23 23 19 19 10 10 6 6 0 0 0 0 0 0 0 0 0 0 0 0 0 0 0 3
32 32 32 26 29 35 48 48 52 48 45 45 42 42 39 35 42 29 23 19 19 23 19 16 10 6 0 0 0 0 0 0 0 0 0 0 0 0 0 0 0 0 0
35 32 35 32 26 32 42 48 42 39 39 42 35 35 32 32 26 26 19 16 16 19 16 10 10 3 0 0 0 0 0 0 0 0 0 0 0 0 0 0 0 0 0
29 29 29 26 26 29 29 29 29 29 32 26 26 29 26 29 23 23 13 13 13 16 19 10 10 13 6 3 0 0 0 0 0 0 0 0 0 0 0 0 0 0 0
32 29 32 29 23 23 26 23 29 26 23 26 19 19 26 26 16 13 16 19 16 19 23 23 16 10 6 10 3 3 0 0 0 0 0 0 0 0 0 0 0 0 0
29 26 32 26 19 19 16 19 26 26 29 23 23 19 19 19 13 6 6 6 10 13 13 13 16 13 13 10 3 3 3 3 0 0 0 0 0 0 0 0 0 0 0
23 23 26 26 23 19 16 16 26 26 23 19 16 16 13 13 10 6 6 0 3 0 0 0 6 10 3 3 0 0 0 0 0 0 0 0 0 0 0 0 0 0 0

GEFSMW_con_cape1000_186.txt.gz
Probability
32 52 65 74 87 97 97 90 94 90 90 84 84 94 87 87 84 87 81 84 87 94 97 71 81 77 61 71 68 65 52 52 61 68 48 39 26 39 65 61 52 48 55
42 52 74 71 84 94 94 90 94 90 90 94 94 94 90 87 87 87 87 81 81 90 77 94 81 87 94 84 74 71 55 52 58 58 48 42 42 65 16 39 55 52 52
35 58 77 77 84 94 94 87 94 90 94 94 90 94 94 90 90 87 90 87 77 77 77 90 87 81 84 84 77 74 71 68 65 55 65 55 35 35 29 42 32 42 55
45 52 71 84 84 90 90 94 94 94 94 94 94 90 87 87 84 84 87 87 84 81 81 87 84 87 84 87 61 58 74 74 71 65 77 65 61 42 45 32 26 35 48
39 52 61 77 81 81 90 94 97 94 94 94 94 94 94 94 81 77 87 90 87 87 74 81 81 81 74 74 74 74 74 74 68 61 58 48 61 48 61 45 52 42 35
42 48 65 77 81 81 87 94 94 97 94 94 94 97 97 94 94 87 87 84 84 87 81 74 71 74 74 77 81 84 74 74 74 71 55 58 55 58 52 39 68 58 35
58 61 68 77 87 87 90 94 94 94 94 94 94 97 97 97 94 94 87 84 77 81 87 74 84 81 81 74 77 77 71 68 71 74 77 61 52 55 48 61 45 55 48
68 71 71 81 84 87 90 94 94 94 94 94 97 97 94 87 87 90 81 84 74 77 87 81 81 77 84 68 74 65 61 68 68 55 68 71 68 65 55 55 61 39 32
65 71 81 87 90 90 90 94 94 94 94 94 94 97 94 97 90 90 90 84 90 81 81 77 74 71 77 77 68 65 61 68 58 52 61 71 55 58 48 55 48 45 23
77 77 77 84 90 90 94 94 94 94 94 94 94 94 90 90 90 90 87 87 87 87 81 71 68 68 68 71 71 65 61 55 61 61 55 61 45 42 42 45 45 45 39
74 74 71 74 77 77 84 84 87 87 90 90 90 90 90 90 90 87 87 87 90 87 84 84 71 68 68 65 68 58 58 58 55 52 48 52 48 45 39 42 29 35 39
71 74 74 71 74 81 84 90 87 87 84 84 87 87 84 87 87 87 87 87 87 87 84 81 77 71 68 68 68 58 55 55 52 45 45 35 39 42 39 32 32 26 32
65 74 74 71 74 81 81 84 84 84 84 87 77 87 84 84 87 87 87 87 87 87 81 77 74 71 68 65 52 55 48 48 45 42 39 39 32 39 35 35 32 29 29
61 71 71 77 74 87 84 84 81 81 81 77 77 84 84 81 84 87 87 87 90 81 81 77 74 71 65 55 48 52 48 45 39 32 35 32 35 35 32 29 29 29 26
61 65 77 77 81 77 84 84 81 84 84 84 81 87 90 90 87 87 84 87 87 77 84 77 71 68 61 52 52 52 45 42 35 32 35 29 19 16 16 13 23 23 26
58 65 68 71 77 77 77 77 77 77 81 84 84 84 87 87 87 84 87 84 77 81 81 77 61 52 32 13 16 26 39 35 35 42 35 23 16 13 3 0 0 6 10
58 58 65 61 68 71 74 74 74 74 81 81 84 81 87 87 87 90 81 81 77 77 74 71 65 58 29 13 6 3 35 32 39 35 39 19 13 10 13 10 3 3 0
52 52 58 58 55 61 65 68 71 74 77 77 74 71 77 84 84 81 77 81 81 71 68 65 61 58 32 6 3 3 16 26 32 29 29 26 26 16 13 16 13 13 10
52 52 52 52 55 55 58 61 65 68 61 65 68 74 68 71 77 77 77 77 74 71 52 55 55 52 32 3 3 0 16 26 26 23 19 16 19 6 0 6 16 16 6
45 52 48 45 52 55 52 55 58 58 61 61 61 61 68 65 65 65 71 68 68 61 55 48 52 48 39 10 0 0 13 23 23 23 13 0 0 3 0 3 10 13 6
42 45 45 45 52 55 55 55 55 52 58 61 61 61 65 58 61 61 68 58 58 55 48 42 39 35 35 6 0 0 16 16 16 16 10 10 0 0 0 0 6 10 3
45 42 42 45 52 52 48 52 48 55 55 58 58 58 61 55 61 61 55 58 52 48 45 35 35 32 26 19 0 0 0 6 19 16 10 6 0 0 0 0 0 0 0
35 35 35 48 48 55 55 48 52 48 52 55 55 52 52 48 52 52 42 42 45 42 35 32 32 29 26 16 0 0 0 0 6 13 3 0 0 0 0 0 0 0 0
26 23 26 39 45 52 52 52 52 55 48 52 52 48 39 35 29 39 42 35 39 35 32 29 29 29 26 23 13 3 0 0 0 3 0 0 0 0 0 0 0 0 3
23 23 26 32 32 39 42 42 39 48 45 45 42 32 32 26 29 23 29 39 29 26 29 32 26 29 23 16 10 10 10 3 3 3 6 3 3 3 3 3 3 0 0
19 26 26 23 29 32 32 32 35 35 35 39 29 32 32 32 23 16 13 6 13 6 3 10 13 16 13 3 0 0 0 0 0 0 6 3 3 3 3 3 0 0 0

GEFSMW_con_cape1000_192.txt.gz
Probability
39 52 61 68 87 94 100 100 100 100 100 97 97 97 97 94 94 97 90 90 94 90 87 84 87 87 90 87 81 81 77 71 74 71 58 65 71 61 77 74 71 71 71
42 68 65 65 87 100 100 100 100 100 100 97 97 97 97 97 97 97 97 90 84 87 74 81 84 90 90 90 87 87 87 77 65 68 65 55 55 65 42 68 77 68 65
45 74 74 77 84 97 100 100 100 100 100 97 97 97 97 97 97 94 97 94 87 81 81 84 77 87 90 90 87 84 71 68 71 65 55 48 45 55 65 68 61 68 68
55 68 74 77 84 90 97 100 100 100 100 97 94 94 97 97 97 94 90 90 84 84 84 87 81 84 84 84 81 81 74 74 68 71 74 65 65 45 58 58 55 68 61
45 65 61 74 77 81 97 100 100 100 100 94 94 97 97 94 94 94 94 90 87 87 87 90 90 84 81 77 81 81 77 74 71 77 71 61 68 48 45 42 45 58 68
55 61 68 90 90 87 97 100 100 100 97 97 94 97 97 97 94 90 94 94 90 87 87 84 84 77 84 81 84 81 71 74 74 71 74 77 65 58 55 39 45 52 55
61 61 74 81 90 90 94 100 100 100 97 97 97 97 97 97 94 90 94 90 90 87 87 81 87 84 84 84 84 84 77 74 74 71 74 81 77 68 61 48 42 48 48
55 58 74 87 90 97 97 100 100 100 97 97 97 97 97 97 94 94 94 90 84 81 84 87 84 81 74 74 81 84 81 77 77 65 68 68 68 61 58 58 52 42 35
45 58 68 77 81 84 94 97 97 97 94 97 97 97 97 97 94 94 90 84 87 87 87 87 87 84 77 77 84 81 81 81 77 74 74 68 61 65 61 61 61 48 29
48 48 61 71 77 81 90 90 97 97 94 94 94 94 94 97 97 90 90 90 90 87 87 87 87 84 84 81 77 74 71 77 81 81 68 68 61 55 58 61 58 55 39
42 52 58 68 71 77 84 87 90 94 97 94 94 94 97 94 90 94 90 90 87 87 87 87 87 84 87 84 81 77 68 65 71 74 68 65 65 58 52 52 48 52 39
52 65 71 77 77 77 81 84 87 90 90 94 97 100 94 94 94 94 87 90 90 87 84 84 84 87 84 81 77 77 71 71 71 74 58 58 45 45 48 52 45 42 42
52 65 71 77 77 84 84 84 84 84 87 87 87 94 90 87 87 90 90 87 87 84 84 87 84 84 81 81 74 77 71 68 65 55 55 48 48 52 48 45 42 35 26
58 65 65 68 74 81 84 81 81 81 84 84 84 90 87 87 87 90 90 90 90 90 84 84 81 81 77 77 68 68 68 58 61 58 52 48 45 35 39 35 39 35 32
58 68 65 68 68 71 81 77 81 81 77 81 84 84 87 87 90 90 90 90 90 90 90 81 77 74 68 61 61 61 61 58 61 55 48 39 29 26 19 16 19 26 26
68 71 71 71 71 68 71 71 71 81 81 81 81 81 84 87 87 90 87 87 87 90 90 81 71 68 58 39 39 48 58 52 55 48 42 29 26 16 10 6 6 10 16
52 61 68 68 71 71 71 71 71 71 81 81 81 81 84 84 84 81 81 87 84 77 74 74 71 65 39 26 26 32 48 52 55 42 42 29 13 10 13 6 0 0 0
48 55 58 65 68 68 68 65 61 68 71 74 77 77 77 77 81 81 81 77 77 77 77 74 71 55 32 16 13 10 42 45 42 35 32 26 19 16 16 13 10 10 10
42 55 55 61 65 65 65 65 61 58 58 65 65 71 71 74 77 77 77 77 71 71 71 68 68 48 32 13 6 3 32 35 29 26 26 26 16 10 3 10 13 13 10
48 48 45 48 58 65 61 61 58 55 55 55 61 71 71 74 65 74 71 68 65 68 65 61 55 48 39 16 10 0 23 35 29 23 19 16 10 10 0 3 13 16 16
45 48 52 52 52 65 61 65 61 58 55 58 58 65 65 68 65 68 68 61 65 68 58 55 52 48 39 16 6 0 13 19 29 19 19 13 3 0 0 0 6 6 6
48 45 52 48 55 58 58 58 65 65 58 55 58 58 61 58 55 61 61 68 58 48 45 48 45 42 39 23 13 0 0 3 23 23 13 6 3 0 0 0 0 0 0
39 39 45 42 52 55 58 55 55 58 58 61 58 55 55 61 61 61 55 48 45 42 42 39 39 35 29 26 10 0 0 0 6 13 13 0 0 0 0 0 0 0 0
39 39 39 39 45 45 45 52 52 55 61 61 58 55 52 55 55 52 45 42 35 39 42 39 32 35 23 19 19 10 0 0 0 3 0 0 0 0 0 0 0 0 3
39 39 39 39 42 45 48 42 45 52 52 55 52 48 45 45 45 42 35 35 32 39 42 35 32 29 23 16 16 13 6 3 0 0 3 3 3 0 3 6 0 0 0
35 35 35 35 32 32 39 45 48 55 58 48 52 39 39 42 39 32 23 16 23 13 6 13 13 23 19 3 3 0 3 3 0 0 0 3 3 3 3 6 6 6 6

GEFSMW_con_cape1000_198.txt.gz
Probability
6 10 13 23 32 39 29 29 32 39 48 45 48 48 39 39 39 39 39 39 42 45 23 39 32 26 10 10 10 6 10 6 10 10 3 0 0 3 3 3 3 6 6
6 10 16 35 39 39 35 39 45 45 48 48 42 45 42 32 32 35 39 39 42 45 35 26 29 23 10 10 10 10 13 13 10 6 3 0 0 0 0 3 3 6 6
13 13 19 32 39 48 42 52 48 45 55 48 52 52 48 48 52 55 48 42 39 39 35 35 39 39 32 23 16 16 19 16 10 10 6 3 0 0 0 0 3 6 3
10 16 26 35 45 52 55 58 55 52 58 65 61 48 52 55 52 45 48 48 48 39 32 35 39 29 32 23 19 19 16 16 13 10 6 6 0 3 0 0 0 0 0
16 26 26 42 45 52 65 74 68 81 74 65 58 61 55 48 45 48 55 55 55 48 52 42 42 42 35 29 26 29 23 16 16 13 10 6 3 3 3 3 3 0 0
19 32 35 35 48 58 65 74 81 81 77 71 65 58 52 48 48 52 55 52 52 48 52 48 45 45 42 35 39 32 29 29 16 6 6 6 6 6 3 3 3 3 3
23 29 29 39 52 61 74 74 77 81 74 71 65 61 61 55 45 52 48 52 52 45 48 48 42 45 48 45 45 42 32 23 19 13 10 10 10 10 6 3 6 3 3
13 16 26 29 48 58 68 77 74 74 71 71 68 58 55 55 52 48 48 52 52 48 48 48 45 52 61 58 48 42 35 35 23 29 23 16 16 13 13 13 10 13 3
19 19 23 39 45 58 61 65 74 74 74 71 58 65 65 61 58 55 52 48 52 55 52 52 52 55 55 52 48 48 35 35 32 32 29 16 19 16 13 13 13 13 10
23 23 29 35 52 55 61 61 65 74 68 61 71 68 58 58 58 52 55 55 55 55 55 58 58 48 52 45 42 45 39 35 39 29 19 16 13 13 13 13 13 10 10
26 29 29 45 55 55 55 55 61 68 58 61 58 58 65 58 58 55 48 45 45 52 61 58 58 52 48 48 42 42 39 35 29 23 19 13 10 6 6 10 6 3 3
26 32 35 45 52 55 58 58 55 68 68 61 58 55 58 58 52 55 52 52 52 58 65 65 58 55 48 48 48 45 42 32 26 16 10 10 6 6 6 6 3 3 0
32 35 32 39 52 58 58 58 61 68 68 65 58 55 61 58 58 55 55 55 65 58 58 58 58 58 52 48 42 45 39 35 23 13 6 6 6 10 10 3 3 3 3
35 35 39 42 48 52 52 55 58 61 65 65 61 61 58 55 61 61 58 61 61 58 58 52 52 55 48 48 45 45 35 32 26 13 6 6 6 16 10 10 10 10 6
26 32 35 39 39 39 42 45 45 52 61 58 61 58 65 65 61 68 71 65 61 61 45 52 45 45 42 42 39 35 35 29 26 23 13 10 10 10 10 10 10 10 6
29 29 39 39 42 42 39 39 45 48 55 61 58 58 65 68 74 74 68 58 55 52 48 45 45 48 48 42 32 29 29 29 23 23 19 16 10 10 10 10 10 10 6
26 26 29 35 35 39 42 39 39 48 45 45 55 61 65 58 65 65 58 58 52 45 45 45 42 39 39 29 16 19 26 19 19 19 16 13 16 10 6 6 3 0 0
26 29 32 29 29 32 42 39 42 42 39 39 39 39 48 52 48 52 58 55 52 45 45 42 35 35 35 19 10 6 10 13 13 16 16 16 13 10 6 6 6 6 3
26 29 29 29 29 26 32 39 42 32 32 32 35 35 32 42 48 48 52 52 48 42 42 35 32 32 32 16 10 3 6 13 13 10 13 13 13 6 3 6 6 3 0
29 29 29 32 29 29 32 32 32 32 29 26 29 29 32 39 39 42 42 45 39 35 39 35 29 29 26 10 6 3 10 13 10 6 6 6 6 0 0 0 3 3 0
26 23 26 23 26 29 35 32 26 23 26 23 26 29 29 35 35 35 35 39 42 32 32 32 32 26 29 13 0 0 10 13 10 10 6 6 0 0 0 0 0 0 0
26 23 16 23 23 23 29 26 23 23 23 23 19 23 26 29 29 26 26 29 39 35 32 29 32 29 19 16 0 0 0 3 3 3 3 3 0 0 0 0 0 0 0
26 16 16 16 16 19 16 16 16 19 19 19 19 19 19 26 23 23 23 26 23 26 26 26 26 26 26 16 3 0 0 0 0 3 0 0 0 0 0 0 0 0 0
19 16 16 16 16 16 13 16 13 16 16 16 16 16 16 23 23 26 26 29 26 26 19 19 19 19 16 16 13 3 0 0 0 0 0 0 0 0 0 0 0 0 0
16 16 16 16 16 16 13 13 13 13 13 16 16 13 13 16 19 19 19 19 16 16 16 13 16 16 23 19 13 13 6 3 0 0 0 0 0 0 0 0 0 0 0
16 16 16 16 16 16 16 16 10 10 16 10 10 13 10 10 10 13 13 13 10 6 6 10 10 13 10 3 0 0 0 3 0 0 0 0 0 0 0 0 0 0 0

GEFSMW_con_cape1000_204.txt.gz
Probability
0 3 3 3 6 6 3 3 6 3 6 6 10 13 13 6 3 6 13 16 13 16 10 13 13 6 6 6 10 6 6 3 3 6 3 0 0 0 0 3 3 3 3
0 3 3 6 6 6 6 3 6 6 6 10 10 10 10 16 13 16 23 19 19 19 23 10 10 6 6 6 10 6 3 10 10 6 3 3 0 0 0 0 6 3 6
3 3 3 3 6 6 6 6 3 10 10 6 6 16 19 19 23 23 16 19 26 32 29 19 13 13 10 13 13 10 10 13 10 6 6 6 6 3 3 0 3 6 10
3 0 3 3 3 6 6 3 6 13 10 6 10 16 19 16 16 19 16 23 23 26 29 26 19 16 16 19 16 16 10 10 10 10 6 6 6 6 3 3 3 3 3
3 0 3 3 6 6 13 13 13 10 6 6 6 13 16 16 19 23 26 26 23 29 32 32 23 23 23 19 16 16 16 10 10 10 10 10 3 3 3 10 3 3 3
6 6 6 6 6 10 16 19 16 13 13 10 13 13 23 23 29 29 26 26 23 23 32 32 26 23 23 26 19 16 19 13 13 10 10 10 10 6 3 6 6 6 3
3 3 0 3 13 10 19 23 26 19 26 26 23 23 29 29 26 29 26 29 29 29 32 39 29 26 26 29 26 29 23 16 16 13 13 13 13 6 10 10 10 10 6
3 3 0 3 6 10 26 29 32 26 23 19 26 16 19 23 29 29 29 26 32 29 32 35 26 26 29 32 32 29 26 19 19 19 13 10 6 10 10 10 10 10 13
3 3 6 3 10 19 32 39 29 26 29 26 26 29 23 19 26 29 23 29 32 29 32 29 32 35 35 39 32 29 29 26 23 23 23 13 10 10 10 10 10 13 10
3 6 6 10 16 23 29 39 29 26 26 26 26 26 26 19 23 23 23 29 29 35 35 32 35 39 39 35 39 32 35 32 32 29 26 16 16 10 10 10 6 6 10
13 16 19 26 29 35 39 45 32 32 32 32 32 39 32 23 26 26 23 26 26 32 35 35 39 39 35 35 35 39 42 35 35 32 23 16 10 10 6 6 6 6 6
19 23 26 39 39 45 48 39 32 39 39 35 35 35 32 29 26 32 29 29 32 29 35 32 42 42 42 39 35 45 39 45 39 35 19 13 10 10 10 6 6 10 10
19 19 23 19 26 42 35 39 42 42 39 42 39 39 39 29 29 32 35 32 35 32 29 39 42 45 45 35 35 42 39 39 35 32 23 13 6 6 6 6 6 10 3
16 16 13 16 19 35 42 45 42 39 39 39 42 42 42 32 26 26 32 42 45 42 32 29 29 35 32 29 35 32 35 32 26 23 23 16 10 6 6 6 6 10 6
26 23 13 13 23 29 35 42 35 32 32 42 35 35 32 35 35 32 32 35 42 35 29 35 35 35 32 26 29 29 26 19 19 19 19 16 10 10 6 6 10 10 6
16 23 23 16 29 32 35 32 26 26 29 32 32 32 35 35 39 39 42 39 32 35 39 32 35 39 35 23 13 13 19 16 19 16 13 16 13 10 6 6 3 3 10
16 16 16 16 29 23 29 32 29 35 26 26 26 26 23 26 32 39 39 42 42 39 39 35 39 39 32 19 6 3 13 13 16 16 16 13 13 10 16 3 3 0 0
13 13 19 26 32 29 29 26 23 29 29 23 23 23 23 26 26 29 29 29 35 29 32 35 35 39 39 13 3 0 6 13 13 13 13 16 16 13 13 10 6 10 3
6 10 13 23 23 29 29 26 19 23 23 23 23 23 26 19 23 29 26 26 26 26 23 26 26 29 32 6 3 0 6 13 13 10 16 13 13 10 0 3 3 10 6
10 16 13 16 19 23 23 26 23 19 19 16 19 19 23 19 23 29 29 26 23 19 16 13 16 26 26 13 0 0 13 16 16 10 10 6 3 3 0 0 3 3 10
6 6 16 10 13 16 16 26 23 19 16 16 16 16 13 16 19 29 19 19 19 16 13 10 13 16 16 16 0 0 16 19 19 16 10 6 0 0 0 0 3 3 0
6 6 10 6 13 10 13 13 13 6 10 13 16 16 13 10 10 16 16 19 19 19 19 13 10 3 13 16 6 0 0 13 19 16 16 10 0 0 0 0 0 0 0
6 10 6 6 6 13 16 13 10 10 6 6 3 6 10 10 10 10 13 16 16 23 19 16 13 10 10 10 6 0 0 0 10 16 13 0 0 0 0 0 0 0 0
13 10 10 13 10 10 13 13 10 10 6 6 3 3 6 10 10 10 13 13 16 19 23 23 13 13 10 10 16 6 0 0 0 3 0 0 0 0 0 0 0 0 0
13 13 10 10 10 10 10 10 10 10 6 6 3 3 3 3 6 6 10 13 13 16 16 19 16 13 6 6 10 13 13 3 0 0 0 0 0 0 0 0 0 0 0
13 13 10 10 10 6 10 6 10 10 6 6 3 3 3 3 6 3 3 3 6 6 10 10 10 13 3 6 3 0 0 0 0 0 0 0 0 3 0 0 0 0 0

GEFSMW_con_cape1000_210.txt.gz
Probability
26 35 42 52 65 84 84 90 90 97 100 94 90 97 100 100 94 90 81 81 84 71 77 61 74 81 71 77 68 71 68 71 68 55 52 42 39 35 39 45 55 55 52
35 52 58 58 58 77 87 97 97 97 100 100 97 100 100 94 94 94 97 90 81 77 65 77 71 71 84 84 81 81 71 71 74 65 52 45 32 52 26 35 45 48 52
45 48 58 58 61 77 81 84 100 100 100 100 97 100 100 97 97 97 97 87 87 81 84 68 74 74 77 81 87 87 74 77 74 65 48 29 35 32 29 35 45 55 52
42 48 58 61 65 68 81 90 97 97 100 100 100 94 94 94 97 97 97 90 84 81 77 87 84 84 81 90 84 74 81 77 77 74 74 58 45 45 39 35 32 39 55
35 45 52 58 52 58 71 74 90 90 94 97 100 100 90 90 94 94 94 90 90 84 81 77 84 77 74 84 84 87 90 84 81 71 71 61 65 39 39 35 32 39 39
35 42 52 61 61 61 68 71 87 90 90 90 87 90 94 90 87 90 87 84 77 74 71 71 74 77 74 81 81 81 81 81 81 81 71 68 68 55 52 48 55 45 39
42 45 48 61 71 61 61 71 84 90 90 90 87 94 90 90 87 84 84 77 61 68 77 65 74 71 71 68 77 77 77 81 84 77 74 71 71 58 55 52 45 32 35
35 42 55 55 65 58 61 68 81 87 87 90 87 90 87 84 84 81 84 77 77 65 77 71 71 71 71 65 71 74 77 77 77 71 81 77 71 65 55 52 42 35 42
42 45 45 55 61 68 71 71 84 90 84 87 90 87 84 81 77 77 77 77 74 74 77 74 77 77 77 74 74 77 71 71 68 68 77 74 71 61 61 52 55 55 42
42 45 48 55 55 68 74 71 87 90 87 87 81 81 84 81 81 81 77 77 77 77 77 84 84 77 74 74 74 74 77 68 71 71 68 74 55 55 68 55 55 55 39
42 48 52 52 52 55 74 77 81 84 84 77 77 77 81 81 77 77 74 74 74 74 81 81 77 74 74 71 74 71 71 68 68 65 61 61 58 61 61 58 55 52 52
39 32 48 55 61 68 71 81 81 77 77 77 77 81 81 81 81 77 74 74 74 71 74 74 71 74 77 77 74 71 68 65 65 65 68 61 58 61 58 65 48 52 61
42 45 52 58 68 68 71 74 74 68 68 68 71 68 71 71 74 71 71 74 74 74 74 74 71 71 71 71 77 77 74 71 68 71 65 58 61 61 58 58 48 45 35
45 45 55 61 61 68 65 61 65 68 68 68 65 68 71 71 71 68 68 71 71 74 74 71 71 68 71 71 71 68 68 71 71 65 65 61 61 58 52 55 58 52 45
45 42 45 55 58 58 55 55 52 55 55 55 58 58 68 71 68 68 68 68 68 68 71 68 68 68 65 61 61 61 61 61 65 65 65 61 48 45 45 42 52 48 35
39 45 48 48 48 52 48 52 52 52 55 52 48 48 58 61 65 65 61 65 65 68 65 58 55 55 52 42 39 52 65 71 61 65 61 52 48 32 19 13 10 23 35
35 45 45 42 48 48 42 42 45 45 48 45 45 45 52 48 48 58 58 61 65 68 65 55 52 52 48 23 19 19 48 55 65 58 58 55 45 35 42 16 10 6 3
35 42 42 39 42 45 45 45 39 42 42 39 39 39 42 39 45 52 52 55 58 61 65 55 52 52 48 26 10 3 32 52 61 55 58 55 52 35 39 39 29 32 29
29 35 35 42 42 45 45 42 45 42 39 39 39 39 39 35 39 35 42 48 52 55 48 45 42 48 45 16 0 0 48 52 55 52 45 48 42 32 10 39 42 35 32
26 29 35 39 42 48 45 39 39 42 32 32 35 35 42 42 39 35 32 39 39 45 39 39 39 42 45 16 0 0 39 55 48 52 48 29 32 23 3 35 39 32 29
26 26 39 39 45 42 39 39 32 32 35 35 35 39 39 39 39 39 32 32 32 35 32 32 35 35 29 23 3 0 39 42 45 42 45 39 13 0 0 6 35 26 23
26 19 32 32 32 39 35 35 32 39 39 35 39 39 35 35 32 39 35 35 29 32 35 35 32 35 32 26 3 0 3 10 35 39 39 42 0 0 0 0 6 3 3
23 19 23 29 29 32 32 32 32 35 39 35 39 39 39 39 35 35 29 39 39 29 29 29 26 26 19 23 10 0 0 0 10 32 19 13 0 0 0 0 0 0 6
16 16 16 23 26 32 29 32 32 35 35 32 35 35 32 32 32 32 26 23 23 26 26 26 26 19 19 19 19 23 6 0 0 6 6 0 0 0 3 0 0 0 6
13 13 10 13 23 26 29 26 29 29 32 32 32 32 26 23 26 23 19 16 23 6 10 10 16 16 16 16 16 16 16 6 6 10 10 13 6 3 10 13 16 3 6
13 10 6 6 16 23 26 26 26 29 29 29 29 26 19 23 13 16 16 3 3 3 3 3 3 13 6 3 3 3 10 3 0 0 13 13 19 19 16 6 10 16 6

GEFSMW_con_cape1000_216.txt.gz
Probability
39 48 52 68 81 97 100 100 100 100 100 100 100 100 100 100 97 97 94 94 90 87 87 81 87 84 81 81 74 74 77 81 84 77 77 77 81 81 84 71 61 58 71
45 71 68 68 71 97 100 100 100 100 100 100 100 100 100 100 100 97 100 94 90 90 81 87 87 90 81 84 84 77 77 77 77 81 74 71 81 74 52 81 71 65 74
61 74 74 68 71 94 97 100 97 97 97 97 97 97 100 100 100 100 97 100 94 94 84 87 81 81 74 81 90 90 84 87 84 84 74 71 61 68 77 77 71 71 71
61 68 74 77 77 94 94 97 97 97 97 97 97 97 97 97 97 100 97 90 87 90 90 90 84 84 77 84 87 87 81 90 84 84 90 81 84 71 68 58 58 61 61
58 61 71 81 77 77 90 97 97 97 94 94 94 94 94 94 94 94 94 90 81 81 81 90 90 84 84 84 87 87 87 87 90 90 77 74 84 74 68 65 58 55 55
55 58 71 77 81 81 87 90 90 94 94 94 94 94 94 94 94 90 90 84 84 81 77 84 87 84 81 81 87 84 84 84 87 90 84 77 84 77 74 77 74 61 61
42 58 71 81 81 77 81 90 90 90 94 94 94 94 94 94 94 94 87 87 77 77 77 74 81 81 87 87 87 81 81 84 81 77 77 77 77 84 81 74 71 68 61
39 45 65 74 81 77 87 87 90 90 90 90 94 94 94 94 90 84 81 81 74 74 77 74 74 77 77 77 81 77 77 81 74 71 77 77 84 77 74 68 65 61 58
35 55 55 65 81 84 87 87 87 90 90 90 90 90 90 90 87 81 81 77 81 81 77 77 74 74 81 81 77 81 74 77 74 71 65 68 74 71 71 65 65 65 45
48 58 55 58 65 81 84 87 87 87 94 90 90 87 90 87 87 81 77 77 81 81 77 81 77 77 77 74 74 74 74 81 71 68 68 68 61 68 71 68 71 68 55
35 48 65 61 65 74 77 84 87 87 90 90 90 87 84 77 77 77 81 81 81 74 74 77 74 74 74 71 71 74 74 71 68 68 65 68 65 68 68 65 65 68 61
39 45 55 58 61 65 71 81 81 81 81 87 84 81 77 77 77 74 77 74 74 71 71 74 74 77 71 71 71 71 71 71 71 71 71 65 58 65 61 61 58 65 58
39 52 61 58 58 61 65 71 71 74 71 71 74 77 74 77 74 71 74 71 71 71 71 74 74 74 71 65 74 71 68 71 65 65 68 65 58 65 61 61 58 58 42
58 52 58 61 58 61 61 61 65 65 68 71 68 65 68 68 71 68 71 68 71 71 71 74 74 74 74 71 71 71 71 68 61 58 68 68 65 65 58 55 55 52 48
55 65 65 61 61 61 61 61 58 58 61 61 61 61 68 71 71 68 68 71 74 74 77 77 74 77 74 68 65 61 61 61 61 61 65 65 58 58 52 45 52 48 45
48 55 58 61 65 61 58 58 55 55 58 55 52 58 58 65 65 61 61 71 71 77 77 77 77 77 61 45 35 42 55 58 61 65 65 55 52 48 35 29 26 32 42
45 52 45 58 61 55 55 58 55 52 48 55 52 55 55 55 58 55 61 65 68 71 74 74 71 71 65 42 23 23 42 55 61 58 52 48 39 35 42 26 13 10 13
42 48 52 55 52 52 52 48 48 48 52 55 52 55 58 52 61 55 55 58 61 65 68 68 68 68 61 35 10 13 32 55 55 58 58 52 48 39 42 35 29 29 26
35 39 45 48 52 52 52 45 42 42 42 45 48 45 48 48 55 52 55 58 65 65 65 61 61 61 58 32 6 3 35 45 55 65 61 58 48 39 23 26 29 35 26
42 42 42 39 45 52 52 45 42 42 39 45 48 45 45 45 48 42 42 45 55 52 55 55 52 52 58 29 13 0 32 45 48 58 55 32 32 26 13 29 32 32 39
39 35 32 35 39 45 42 45 42 39 39 39 42 35 39 45 45 42 42 42 42 42 39 39 32 39 39 26 0 0 26 42 42 45 39 35 13 10 0 6 32 32 26
26 26 35 29 39 35 39 39 42 35 35 29 29 29 39 35 32 39 42 48 42 42 39 39 32 32 35 26 10 0 3 13 32 35 32 26 13 0 0 0 10 10 6
26 29 29 26 26 32 39 42 45 45 39 39 42 42 39 42 39 32 35 39 42 29 35 35 32 35 26 26 16 0 0 3 13 19 16 13 3 0 0 0 0 3 3
26 26 26 23 26 29 23 32 42 42 39 35 48 45 45 39 39 32 19 19 32 35 35 26 29 29 26 23 26 13 0 0 3 6 6 3 0 0 0 0 0 3 3
29 23 26 29 26 23 26 26 35 45 35 39 39 39 29 26 35 32 23 23 29 29 23 26 26 26 23 10 13 13 16 13 10 6 13 10 13 0 3 6 13 6 3
29 29 29 26 19 23 26 26 39 45 45 48 42 29 29 19 23 19 16 3 6 6 3 10 10 10 10 6 6 3 10 10 6 3 6 10 6 10 10 10 13 10 10

GEFSMW_con_cape1000_222.txt.gz
Probability
13 16 19 29 29 32 32 32 32 39 39 35 26 26 26 29 26 19 19 26 26 32 29 29 26 19 23 16 16 10 10 13 10 13 13 10 6 10 13 6 6 10 10
16 16 29 42 42 39 42 42 42 42 42 35 26 29 29 26 19 19 23 26 23 23 35 19 26 26 19 19 19 16 19 16 13 10 13 6 10 6 6 6 6 3 10
23 23 26 45 48 42 45 48 55 45 42 35 35 26 23 26 23 19 26 26 26 26 26 23 23 23 23 19 19 19 16 13 16 13 13 3 3 3 3 0 0 0 3
23 26 29 39 45 45 48 48 58 58 52 52 42 26 29 29 23 19 32 29 26 29 23 19 19 23 23 23 16 16 16 16 13 13 10 6 3 6 3 3 0 0 0
23 32 32 39 45 58 58 58 65 61 68 55 48 39 32 32 29 32 32 35 39 32 35 35 26 23 26 32 19 19 13 16 16 16 13 10 10 3 3 3 3 6 3
23 29 23 29 39 52 58 61 61 65 71 68 52 39 39 39 42 39 35 39 35 39 35 45 39 29 35 32 35 23 29 26 23 19 13 13 10 13 6 10 6 6 6
19 16 29 26 39 45 58 61 65 58 61 65 65 58 42 42 42 39 42 45 39 35 35 45 48 45 35 29 29 35 39 29 26 23 23 19 10 6 10 10 6 6 3
10 26 23 29 35 48 55 61 61 61 58 68 65 65 58 58 52 39 42 48 42 35 32 39 52 48 42 45 35 45 45 42 39 45 29 29 16 10 6 6 10 10 6
19 26 29 26 26 42 55 61 61 61 58 68 71 74 71 61 55 48 55 42 39 45 45 42 48 52 48 48 35 39 42 42 35 35 35 32 23 19 13 10 10 13 10
19 19 29 32 32 42 55 55 61 58 61 68 71 77 68 58 52 52 55 58 45 45 45 42 48 55 48 45 39 39 42 45 39 39 39 32 29 26 26 13 13 13 13
29 32 35 35 39 45 45 52 58 61 61 65 61 65 61 58 58 55 55 52 55 55 45 45 48 48 42 45 42 42 39 42 39 32 32 26 29 26 26 23 16 13 10
23 32 39 29 32 39 39 52 48 52 58 65 68 61 55 52 58 58 55 52 48 52 55 48 48 45 42 39 35 39 39 39 32 29 32 32 32 29 26 19 19 13 10
32 35 39 39 39 39 35 42 45 52 61 61 65 58 58 55 55 58 52 48 52 48 58 52 48 45 39 42 35 35 35 35 32 29 35 32 32 29 19 19 16 16 16
35 29 35 35 42 42 39 48 52 48 48 55 58 55 55 55 52 52 52 52 48 48 48 52 52 45 42 39 35 35 32 32 29 29 29 23 23 26 29 19 19 19 13
29 32 32 26 23 35 35 42 45 48 55 52 58 48 42 48 48 48 48 45 48 45 45 48 48 52 42 45 39 35 32 29 26 23 23 26 19 23 19 29 16 13 16
26 26 26 26 16 19 29 32 29 39 42 35 35 39 39 39 42 45 45 48 48 45 45 45 45 42 45 45 32 42 45 39 29 29 26 29 29 29 19 13 13 13 10
16 23 29 23 32 26 29 26 26 32 32 32 32 32 32 32 35 42 42 42 42 42 48 42 42 35 35 26 26 23 39 35 32 32 23 26 32 23 19 10 10 6 6
13 13 16 19 29 29 29 26 29 32 32 29 29 32 29 32 26 29 32 32 29 29 26 29 35 35 26 16 10 6 16 19 19 19 19 23 23 19 13 10 6 6 6
16 16 23 26 32 29 29 32 32 35 35 26 26 26 26 26 23 26 26 23 23 19 23 19 19 16 16 10 6 3 13 19 19 19 23 23 13 13 3 6 10 10 6
26 29 26 26 26 32 29 26 32 32 26 23 23 29 29 26 23 16 19 19 19 19 19 23 16 13 10 6 0 3 13 16 10 13 13 16 13 6 0 6 6 10 6
23 23 23 26 26 26 29 29 35 32 29 29 26 26 29 19 13 13 16 23 23 23 19 16 10 10 10 6 0 0 16 13 13 16 13 13 6 0 0 0 6 6 6
19 19 19 19 26 26 26 26 23 19 26 26 23 19 23 19 19 16 16 16 16 16 16 16 10 10 10 10 0 0 0 6 10 10 10 13 6 0 0 0 3 3 0
16 19 19 19 19 19 23 19 19 13 13 16 16 16 13 13 10 10 13 13 13 13 13 10 10 10 10 10 6 0 0 0 10 10 10 10 3 0 0 0 0 0 0
19 19 16 16 16 6 10 13 13 10 6 10 13 13 13 13 10 10 10 13 10 10 16 10 10 13 10 6 6 0 0 0 3 3 6 3 0 0 0 0 0 0 0
16 16 16 13 13 3 3 6 6 6 10 10 13 13 6 6 3 3 3 6 6 6 6 10 10 10 6 3 3 3 0 3 3 3 3 3 0 0 0 0 0 0 0
16 16 13 13 3 3 3 3 3 6 6 6 3 6 10 6 6 3 3 0 6 3 3 0 3 6 3 3 3 0 3 3 3 3 6 6 6 6 3 0 0 0 0

GEFSMW_con_cape1000_228.txt.gz
Probability
3 6 10 13 10 10 6 6 10 6 6 6 10 13 16 6 3 3 10 10 10 16 16 13 3 3 13 13 10 6 6 6 10 13 6 13 10 6 6 3 6 6 13
3 3 6 13 13 6 10 13 13 6 6 6 10 10 13 10 6 13 16 13 13 19 19 10 10 10 10 10 6 0 10 10 10 6 10 10 3 10 6 3 10 3 6
6 10 10 13 16 19 16 19 13 13 6 10 13 6 3 3 10 16 13 6 10 19 19 16 13 10 10 10 6 3 6 6 10 10 10 10 10 6 3 3 3 10 6
6 6 10 10 19 23 19 19 16 13 10 6 10 10 6 6 10 6 10 6 10 19 19 19 16 13 10 6 3 3 6 3 3 6 6 10 10 10 16 3 3 0 3
6 10 10 13 19 19 19 19 16 16 16 16 10 6 6 3 3 3 6 6 10 13 19 23 23 23 16 10 6 6 3 3 3 6 6 3 0 0 6 10 3 0 3
6 10 10 13 13 16 16 23 19 16 13 13 19 16 10 6 3 6 16 13 13 23 23 26 23 23 19 19 19 13 6 6 3 10 10 6 10 3 3 3 3 3 6
6 6 6 10 13 23 23 26 29 19 19 16 19 23 13 6 10 13 16 19 23 23 23 29 26 23 19 13 13 13 16 13 10 16 16 16 13 6 3 6 10 10 10
3 10 6 10 16 19 23 26 26 29 29 26 23 23 16 19 23 19 23 16 23 23 26 26 26 26 26 16 13 16 23 19 23 26 23 19 19 13 6 6 10 10 10
3 6 6 10 16 16 23 29 32 32 32 32 29 26 26 26 26 19 19 23 23 23 26 29 29 29 32 26 23 26 26 29 39 32 29 23 23 19 19 10 10 23 19
13 10 6 23 23 26 19 29 39 39 42 35 32 29 26 29 29 29 29 26 23 23 29 29 29 29 32 26 32 32 29 29 32 29 23 26 23 19 23 19 10 10 16
19 13 13 19 29 26 29 39 42 42 35 42 42 32 32 26 29 29 29 29 29 29 32 29 19 19 19 26 29 32 29 26 32 23 29 32 29 26 26 23 16 13 10
13 16 19 23 26 26 29 32 32 32 35 35 39 35 32 32 29 29 26 23 26 26 29 26 26 26 26 23 26 29 32 32 32 32 26 26 19 26 23 23 19 16 16
16 16 16 19 19 26 29 29 32 29 35 35 35 29 26 29 26 26 23 29 32 29 26 26 29 29 32 32 26 23 32 32 26 29 29 26 19 19 19 16 16 19 16
19 13 13 10 13 19 29 29 29 29 23 29 29 29 26 26 23 23 23 23 29 32 29 29 32 32 32 29 35 29 26 32 32 32 29 26 23 23 23 16 16 13 13
16 13 19 16 19 19 29 29 29 26 29 23 26 26 23 23 19 19 19 23 26 26 29 26 26 29 29 29 32 32 29 26 26 26 26 23 19 16 16 16 16 10 10
19 19 13 16 19 23 23 19 29 26 29 26 26 19 16 16 23 23 29 32 29 29 26 26 29 26 29 19 13 16 19 19 19 23 26 19 16 16 6 3 0 0 3
23 19 19 19 16 16 26 19 23 23 23 19 19 19 19 19 26 26 26 26 29 26 32 29 29 16 16 10 6 6 13 16 16 13 19 16 16 10 16 3 0 0 0
19 23 16 13 13 13 13 23 23 23 19 16 19 19 19 19 23 23 23 23 26 23 23 32 29 29 16 10 0 0 3 6 10 3 3 13 10 6 10 13 6 3 0
19 13 13 13 16 16 19 16 13 19 19 23 23 19 19 23 23 23 23 26 23 26 19 26 23 23 16 6 0 0 6 10 6 3 6 6 6 3 3 6 10 6 10
13 13 13 10 13 13 13 10 13 16 16 19 26 26 26 23 23 23 23 23 23 19 19 19 23 23 19 3 0 0 6 10 10 6 0 0 0 3 3 3 13 13 13
16 16 16 10 10 10 13 13 13 16 16 13 16 32 23 26 23 16 16 16 16 16 10 13 16 16 19 6 0 0 3 13 10 3 6 6 0 0 0 3 10 13 13
13 16 10 10 10 6 10 10 10 6 16 16 26 26 23 19 19 19 13 10 13 13 10 13 10 13 10 6 0 0 0 3 10 10 10 6 0 0 0 0 3 3 0
10 10 10 10 6 10 6 6 6 10 13 16 23 23 19 10 10 16 10 10 10 6 6 6 10 10 10 6 3 0 0 0 0 10 6 3 0 0 0 0 3 0 3
10 10 6 6 13 6 13 13 16 13 16 16 13 10 10 10 3 3 3 3 3 3 6 6 6 6 10 10 3 3 0 0 0 0 0 0 0 0 0 0 0 3 3
3 10 10 10 10 6 10 6 10 10 10 13 10 6 6 6 6 3 3 3 3 3 6 6 6 6 10 6 3 3 3 0 0 0 0 0 0 0 0 0 3 3 3
3 6 10 10 10 6 6 3 6 6 6 3 3 6 6 6 6 3 3 0 0 3 0 0 3 3 3 3 0 0 0 0 0 0 0 0 3 3 3 3 3 3 3

GEFSMW_con_cape1000_234.txt.gz
Probability
45 55 55 52 65 71 74 74 74 81 87 81 74 74 68 71 58 52 52 71 68 55 71 58 71 68 61 61 55 58 52 52 61 39 35 42 39 39 42 39 39 39 45
52 61 65 58 65 71 77 81 81 81 84 87 90 87 84 74 68 71 71 74 74 68 58 71 58 65 71 77 65 65 48 45 45 45 39 29 26 48 32 42 39 42 42
52 65 61 68 65 68 74 74 77 81 81 84 84 81 87 77 71 77 81 77 77 74 71 68 68 68 61 68 74 68 68 52 52 52 52 35 29 29 39 42 39 48 48
61 68 81 68 68 74 81 81 87 87 87 87 81 81 84 81 87 94 74 77 74 74 71 74 71 74 65 71 61 61 68 74 55 45 61 55 61 48 42 42 39 32 39
55 65 68 77 71 71 81 81 87 87 87 87 87 87 84 77 81 77 77 81 77 77 77 77 77 77 71 68 71 74 77 74 61 52 39 45 61 48 52 42 42 35 32
52 65 61 68 71 74 77 81 90 90 90 87 84 87 90 87 84 84 81 77 84 77 77 77 74 77 74 77 77 77 74 74 74 71 58 48 48 48 48 35 35 42 29
48 65 71 68 71 71 74 77 84 87 90 90 87 94 94 94 94 87 84 84 74 74 81 77 81 81 81 81 81 77 77 77 77 74 65 55 52 52 48 39 29 29 35
39 58 68 68 74 74 71 77 77 87 84 84 90 90 90 94 84 84 81 81 71 68 74 81 81 81 81 68 74 65 71 77 74 68 68 61 61 58 52 45 42 35 39
39 45 65 65 68 71 71 65 74 84 81 84 87 87 87 84 81 84 84 77 77 68 71 74 71 71 68 74 74 71 68 74 68 61 65 61 61 58 58 58 52 45 32
45 42 48 65 65 71 74 77 77 81 81 81 81 81 81 84 84 81 77 81 77 77 74 71 71 65 65 68 74 74 71 71 68 71 68 65 55 52 58 61 65 58 52
42 45 48 55 65 68 74 77 77 77 81 77 77 81 81 84 81 81 77 74 74 74 74 71 71 65 65 68 68 68 71 65 68 65 58 61 58 55 55 52 58 61 52
42 48 52 55 55 65 65 68 71 74 77 77 77 81 77 71 74 74 71 68 74 71 65 68 71 68 65 65 68 68 61 61 61 61 58 58 58 61 58 65 55 58 68
48 48 52 58 58 65 65 65 65 65 68 68 74 74 74 71 74 68 68 68 71 68 65 58 61 61 65 65 65 65 58 58 55 61 61 58 61 65 61 68 58 52 42
48 45 52 61 61 61 65 61 68 65 65 65 65 68 65 65 65 65 61 61 58 58 61 58 58 58 61 61 61 61 61 61 58 65 61 55 55 65 65 58 61 55 48
45 45 58 58 61 65 65 61 61 61 61 61 61 61 61 65 58 52 52 48 52 52 52 55 48 52 52 52 55 52 55 55 55 58 65 61 45 45 48 48 48 52 45
42 42 45 52 55 58 58 58 61 61 61 61 61 58 58 55 58 52 48 48 48 48 48 45 42 42 39 29 26 35 48 48 52 52 58 48 42 35 6 6 6 23 48
35 39 42 45 48 48 55 58 55 58 61 61 61 52 52 55 48 48 48 45 45 45 42 42 39 39 32 26 13 16 39 42 48 52 42 32 32 32 52 13 3 3 6
32 35 39 42 39 42 42 45 48 52 55 55 52 48 45 42 45 48 48 48 45 45 45 45 39 39 32 10 3 6 26 35 32 32 35 35 35 32 45 35 29 32 32
32 32 35 32 39 35 39 39 39 42 42 45 52 45 45 42 45 42 48 45 48 45 45 42 39 39 29 10 0 3 26 26 23 23 26 29 35 13 6 16 23 26 26
32 35 35 32 35 35 39 39 35 42 42 39 45 45 52 48 39 42 39 42 42 42 42 39 39 39 35 10 0 0 16 23 23 23 16 16 16 13 0 19 19 16 29
26 29 32 35 32 35 39 39 35 35 29 35 39 39 42 39 39 42 39 39 42 42 42 39 39 39 29 10 0 0 16 19 23 23 19 16 3 0 0 3 19 16 13
19 19 29 35 39 35 32 32 32 26 29 32 39 39 39 29 32 39 42 39 39 39 39 35 35 32 26 10 3 0 3 13 19 19 16 16 3 0 0 0 3 0 0
16 16 26 35 39 32 32 29 29 29 29 32 42 42 39 35 39 39 39 35 39 29 29 32 32 32 23 16 6 0 0 0 6 16 13 6 0 0 0 0 0 0 3
19 13 16 19 23 26 26 26 26 26 26 23 32 32 35 35 35 35 29 32 32 23 23 23 23 23 19 19 13 6 3 0 0 3 3 0 0 0 0 0 0 0 6
16 13 10 13 16 19 19 19 19 19 23 26 29 29 29 19 23 13 16 13 19 6 16 10 19 16 16 3 0 6 6 3 6 6 6 10 13 6 6 10 6 6 3
6 10 6 6 16 19 19 16 13 13 19 19 23 19 23 23 16 13 10 0 3 0 0 3 3 0 3 0 0 0 0 0 0 0 6 6 13 10 10 13 6 3 3

GEFSMW_con_cape1000_240.txt.gz
Probability
55 55 61 58 68 74 90 90 90 90 94 94 94 94 90 90 90 84 81 77 74 74 74 71 74 74 74 77 71 84 61 65 68 58 61 58 55 55 55 68 58 61 68
48 61 61 61 71 84 87 87 90 90 90 90 94 97 97 97 97 87 90 81 74 71 65 74 74 74 74 74 77 74 65 71 71 71 65 65 55 61 42 74 71 61 55
45 58 58 65 68 77 87 84 90 90 90 90 94 94 94 97 94 87 87 84 81 74 68 71 77 77 74 71 77 77 71 68 71 68 61 61 58 68 68 74 77 61 68
48 58 58 58 68 77 81 90 94 97 97 97 97 90 94 87 87 90 87 87 84 84 81 81 81 84 77 74 71 71 77 74 74 71 71 74 71 61 58 65 55 52 61
45 58 61 68 68 68 71 84 94 97 97 97 94 94 94 94 90 87 94 90 84 84 81 81 81 84 81 81 71 77 77 74 71 71 71 71 71 68 55 45 55 58 52
42 58 65 77 74 74 74 81 90 90 94 90 94 94 94 90 90 94 94 87 84 84 81 81 81 84 81 81 77 77 81 77 74 74 74 77 71 68 65 42 58 52 45
42 55 61 71 77 77 77 81 87 90 90 90 90 90 90 87 94 94 94 84 84 84 81 77 81 81 81 77 81 74 81 81 77 77 74 74 65 65 68 58 52 58 55
39 48 65 74 74 77 81 84 87 90 90 84 87 90 87 90 87 90 87 87 84 77 74 77 77 77 81 74 81 81 74 77 77 71 77 77 71 71 61 61 55 45 48
32 42 58 81 77 77 81 81 84 87 84 81 87 87 87 87 87 87 87 87 81 74 74 71 71 68 77 77 77 81 74 81 74 77 77 81 65 68 65 65 55 52 45
42 48 52 65 77 74 77 77 81 84 87 81 84 81 87 84 84 84 84 81 77 81 77 74 71 71 71 74 74 74 77 81 81 84 77 77 71 71 71 68 65 61 55
52 52 52 65 68 74 74 74 81 81 81 84 84 84 81 87 84 87 84 77 77 81 77 71 74 71 68 71 71 74 74 71 71 74 68 71 71 68 68 74 65 61 68
45 45 55 61 58 61 71 77 81 81 81 84 84 84 84 81 81 84 77 81 77 74 77 77 71 71 68 68 68 68 68 68 68 65 65 68 58 71 74 74 71 71 68
42 48 58 55 61 61 65 65 65 68 71 81 77 77 77 77 77 77 77 77 74 77 74 74 71 68 68 68 68 68 61 61 61 61 61 61 65 61 68 65 61 65 65
39 45 61 65 65 65 65 61 58 61 65 65 68 74 77 74 74 71 71 71 74 74 68 71 71 68 61 58 58 58 58 61 61 61 61 55 55 58 61 58 58 58 61
39 55 65 61 65 65 61 58 61 61 65 65 65 68 65 68 68 68 68 65 68 55 68 68 61 58 58 55 52 52 55 61 58 55 52 52 45 35 35 39 42 48 45
42 48 61 65 61 61 58 58 61 65 65 65 68 65 61 65 68 55 58 61 65 61 68 65 65 61 42 35 32 39 42 48 55 48 52 52 35 29 19 19 16 16 35
45 52 58 61 61 55 55 61 65 61 65 58 58 58 58 58 55 52 58 61 61 61 61 61 65 58 52 35 19 19 42 42 42 45 45 42 39 29 29 26 6 3 3
48 48 52 52 55 55 48 55 58 58 55 58 55 55 55 52 58 58 61 61 58 58 55 61 55 55 45 23 10 10 19 42 42 39 39 42 32 26 26 26 29 32 32
42 39 42 42 45 48 48 45 48 48 55 52 52 48 45 45 52 52 55 65 58 55 55 55 52 48 39 23 10 3 26 39 32 32 23 23 29 16 13 13 16 29 26
39 39 29 29 39 48 45 48 45 48 45 48 52 48 48 48 45 52 52 52 58 52 55 48 45 42 42 23 3 3 26 29 26 29 23 16 16 16 10 13 16 16 23
29 29 32 39 48 55 58 45 42 42 45 42 48 45 45 55 52 55 61 55 45 42 48 48 48 45 42 19 3 3 26 23 23 19 19 16 10 0 0 6 16 16 10
26 26 42 35 35 45 45 52 48 45 45 39 39 45 48 32 32 45 48 52 48 48 45 45 39 39 35 23 10 0 3 10 16 23 16 13 3 0 0 0 3 3 0
26 29 42 39 39 39 48 55 52 45 42 42 45 45 42 45 45 42 39 45 48 35 35 32 32 32 35 26 6 0 0 0 3 13 10 6 0 0 0 0 0 0 0
29 29 29 35 39 42 45 45 48 48 48 48 42 35 32 29 39 42 32 32 32 32 32 29 26 23 32 19 16 10 0 0 0 0 3 0 0 0 0 0 0 0 3
29 32 32 42 39 35 39 32 39 42 48 42 39 35 26 19 32 23 29 19 19 19 19 26 29 23 19 10 10 13 6 6 3 3 6 10 3 6 6 6 3 3 3
23 23 23 29 35 32 32 39 42 45 48 42 39 23 19 26 19 16 13 6 3 3 0 3 6 3 3 6 0 0 0 0 0 0 3 3 3 6 6 10 10 6 6

GEFSMW_con_cape1000_246.txt.gz
Probability
16 13 26 26 23 23 23 23 19 19 19 23 23 19 16 16 13 13 19 16 10 13 16 13 10 10 13 13 13 16 16 10 13 6 0 0 0 6 3 3 3 13 13
23 23 26 32 29 26 29 23 19 23 26 26 19 23 19 23 23 16 26 26 16 13 23 10 10 6 10 10 16 13 13 10 10 6 0 0 0 0 0 0 3 10 6
26 32 32 42 39 29 26 26 29 23 26 32 26 32 23 26 42 42 42 29 26 26 26 16 19 13 10 19 16 19 13 13 6 6 6 6 0 0 0 0 3 3 6
23 26 32 35 39 39 35 26 32 32 23 26 29 26 23 32 35 39 35 39 42 45 35 32 26 23 16 16 13 19 16 16 16 16 6 6 3 3 0 0 0 3 6
23 29 32 39 39 39 35 42 35 39 39 35 35 35 32 29 29 42 39 45 39 35 42 32 29 26 32 26 26 23 13 16 19 16 10 3 3 3 3 3 0 3 3
23 23 29 39 42 45 42 42 42 42 45 45 42 35 32 29 45 48 42 42 45 42 45 45 39 32 32 35 29 26 23 26 16 16 13 10 3 3 3 3 6 3 6
16 19 26 32 39 45 45 42 39 45 42 48 52 45 42 45 48 55 42 45 48 45 42 42 39 35 39 39 35 29 23 23 26 19 10 13 13 6 6 6 6 6 6
19 23 26 26 35 45 48 45 35 39 45 55 52 48 48 52 48 55 55 45 45 42 42 45 42 42 42 48 39 32 32 29 26 29 19 13 13 13 13 10 10 10 6
26 32 29 26 35 45 48 45 42 42 42 52 52 55 52 48 48 52 55 45 45 42 42 42 42 48 42 42 39 42 42 39 39 23 16 16 23 16 19 16 10 10 6
29 29 32 32 32 45 45 55 48 45 48 48 52 58 55 52 52 48 48 45 45 42 42 45 39 42 42 39 42 42 42 42 39 39 39 29 29 23 16 19 13 10 10
23 29 26 29 29 32 48 48 55 55 58 58 61 61 55 58 55 55 42 45 42 45 48 45 42 42 42 42 45 42 42 42 42 42 42 39 32 26 19 19 16 6 10
29 23 32 39 39 39 42 48 58 61 61 61 61 52 52 58 65 58 52 52 42 39 45 48 48 45 45 48 48 45 45 42 42 45 39 32 32 26 23 16 13 10 10
19 19 29 35 39 35 39 45 55 61 58 58 61 58 48 55 58 55 48 42 42 45 39 45 45 52 52 48 45 45 42 42 42 39 35 32 32 23 23 19 16 13 13
29 26 26 26 29 32 39 45 55 55 52 55 55 58 58 58 55 52 45 48 45 48 45 45 48 48 45 45 35 39 42 39 35 32 29 26 29 29 26 26 23 13 10
26 19 26 29 26 29 35 39 45 45 48 48 52 52 52 48 45 52 45 42 42 45 42 45 48 48 45 42 42 39 39 35 26 19 23 26 26 29 26 29 16 16 10
29 23 26 23 26 32 32 32 35 42 39 45 42 48 48 45 45 48 42 39 35 42 42 42 42 45 42 35 32 39 35 32 29 26 29 23 23 26 19 19 16 16 16
19 19 19 26 26 26 29 29 26 35 35 39 39 39 39 45 48 42 42 39 35 39 39 35 35 42 39 32 23 26 29 29 26 29 19 29 26 13 13 10 6 6 10
23 23 23 26 26 26 29 29 29 29 26 26 26 35 35 39 45 42 39 39 35 32 32 29 29 32 32 26 16 16 16 26 26 23 19 16 10 10 10 10 10 6 3
23 26 23 23 26 26 26 26 29 29 29 26 29 29 29 35 42 45 39 32 29 29 26 29 26 29 29 16 10 10 16 16 19 19 13 13 10 6 10 10 10 10 3
16 19 19 19 26 23 23 19 19 23 19 16 19 23 29 29 29 35 26 23 23 29 23 29 23 23 23 16 10 10 19 16 10 6 10 13 13 6 6 6 6 6 3
16 16 16 19 19 23 19 23 23 23 23 23 19 19 23 26 23 23 23 19 19 19 19 19 19 19 16 16 6 3 16 10 10 6 6 10 3 3 3 0 3 3 0
13 16 16 16 19 23 19 19 23 19 19 19 19 19 16 19 19 23 23 23 16 16 16 16 19 13 6 10 10 0 3 6 10 6 3 3 3 0 0 0 3 0 0
10 13 13 16 16 19 23 23 16 19 16 19 13 13 13 13 16 19 23 23 19 19 19 19 16 6 3 3 0 0 0 0 3 3 3 3 3 0 0 0 0 0 0
13 13 13 16 10 10 13 16 16 19 16 16 13 10 10 6 6 6 10 10 19 19 19 13 10 6 6 6 3 3 3 0 0 3 3 0 0 0 0 0 0 0 0
10 10 13 13 16 16 13 10 16 13 13 13 16 13 3 3 3 3 3 3 6 10 6 3 3 6 6 6 0 3 6 3 3 0 0 0 0 0 0 0 0 0 0
6 6 10 6 13 13 13 13 6 6 10 10 13 10 3 3 3 0 0 0 0 0 0 0 0 0 3 3 0 0 0 0 0 0 0 0 0 0 0 0 0 0 0

GEFSMW_con_cape1000_252.txt.gz
Probability
6 3 6 3 3 3 3 6 6 6 3 6 3 0 3 3 0 3 3 6 6 6 3 6 10 10 10 10 10 16 16 13 6 3 3 0 0 0 3 6 3 3 6
3 3 3 6 3 6 6 3 6 6 6 0 0 3 3 3 3 13 13 10 10 6 6 6 6 3 6 6 10 6 10 6 3 6 3 0 0 0 0 0 0 3 10
6 6 6 13 3 3 3 10 6 10 6 3 3 0 0 3 6 10 13 13 13 16 16 16 10 10 6 10 13 10 10 10 10 3 6 3 3 0 0 0 0 0 13
10 13 13 13 13 10 13 10 6 10 10 6 6 3 6 10 10 13 16 16 23 29 19 16 13 10 10 13 16 13 13 13 19 10 3 6 3 3 3 3 3 6 6
13 13 13 13 10 10 10 10 10 6 10 3 3 6 10 10 10 13 16 16 23 29 35 39 19 13 16 13 13 13 10 6 19 23 13 6 3 3 3 6 6 6 6
16 19 13 13 6 3 3 3 0 3 6 3 3 10 6 6 13 13 13 16 23 26 39 39 32 26 23 23 16 13 13 13 16 16 10 13 6 6 3 3 3 6 6
16 16 19 13 6 3 3 3 3 3 6 6 6 10 6 6 13 16 16 19 26 26 26 35 35 35 32 26 23 16 10 10 19 16 19 16 10 6 6 6 6 6 10
13 19 19 16 10 10 6 13 6 6 6 13 6 6 10 13 13 13 13 13 26 32 32 32 39 32 32 26 23 19 26 26 23 19 19 13 10 10 13 10 6 6 6
16 19 23 13 16 13 19 23 13 10 10 13 13 13 13 13 10 13 13 19 23 29 35 35 35 35 29 29 23 26 29 32 32 32 23 13 13 10 10 13 13 16 16
23 16 16 26 19 13 16 19 23 19 10 10 23 23 19 19 19 16 26 29 29 32 32 32 35 29 35 35 29 29 29 32 35 32 29 26 26 19 19 10 10 10 10
23 16 13 23 26 23 23 23 26 32 35 29 26 26 26 29 29 29 32 32 29 29 29 26 26 23 29 35 35 35 35 35 32 32 32 32 35 29 19 16 13 10 6
10 13 13 16 26 29 29 29 35 35 35 42 39 29 32 32 39 39 35 35 26 23 23 23 19 26 26 32 35 39 39 35 35 35 35 35 29 23 23 23 26 19 16
3 10 10 16 19 23 29 29 35 39 39 39 45 39 35 39 39 42 42 29 26 26 26 23 26 29 35 32 35 32 32 35 35 35 35 35 32 23 19 23 19 13 13
10 6 6 16 19 26 29 32 35 35 42 42 42 42 32 39 35 39 32 26 29 29 32 29 32 32 32 32 32 32 35 32 29 32 29 26 19 19 23 23 19 16 16
6 6 10 16 19 19 26 29 39 42 42 39 45 45 39 39 35 32 19 23 23 26 29 23 26 26 32 39 35 32 29 35 29 29 26 26 19 16 16 16 23 16 13
16 13 13 13 16 16 16 32 39 35 39 42 42 32 35 35 35 26 19 19 26 23 23 23 26 26 26 23 19 19 32 29 29 29 26 23 19 13 10 10 6 6 10
16 19 16 19 16 16 23 26 26 26 26 26 29 32 29 32 32 32 26 26 32 29 23 23 23 23 19 13 10 13 16 26 26 26 19 23 19 10 16 6 0 0 0
16 10 13 10 13 13 13 16 16 19 23 23 26 26 19 23 26 26 29 39 32 29 26 26 23 23 19 10 6 6 13 19 23 23 19 16 23 10 6 6 6 6 3
6 3 3 3 10 10 13 13 6 10 16 13 19 19 19 16 19 23 23 32 35 23 23 26 23 23 19 10 6 3 10 10 19 19 16 19 19 6 3 6 10 10 10
10 3 3 10 10 6 6 6 6 6 10 16 16 16 16 16 16 19 23 23 26 26 19 23 23 23 23 13 3 3 10 13 16 16 13 6 10 3 3 3 6 10 6
3 3 3 10 3 3 3 3 6 6 6 6 13 10 13 13 16 13 6 16 23 19 19 19 19 19 16 13 3 3 10 16 16 16 10 6 0 0 0 0 3 3 3
10 3 6 6 6 3 6 6 6 6 6 10 13 13 13 16 16 10 10 13 19 19 19 23 19 16 10 6 0 3 6 6 10 10 10 6 0 0 0 0 0 0 0
6 6 6 10 6 10 10 6 10 13 13 13 13 13 10 10 13 13 13 10 10 16 19 23 19 13 6 10 0 0 0 0 6 6 3 0 0 0 0 0 0 0 0
6 6 6 10 10 10 13 16 13 10 13 13 10 10 10 10 10 13 16 10 13 16 16 16 16 10 6 6 10 0 0 0 0 3 0 0 0 0 0 0 0 0 0
3 3 6 6 6 3 10 10 10 10 10 10 10 10 10 10 10 6 6 10 10 6 13 13 10 6 6 3 3 0 0 3 3 3 0 0 0 0 0 0 0 0 0
3 3 10 10 6 3 3 6 10 10 10 10 10 10 6 6 3 3 0 0 3 0 0 6 6 6 3 3 3 0 0 0 0 0 0 0 0 0 0 0 0 3 3